Time,TemperatureF,DewpointF,PressureIn,WindDirection,WindDirectionDegrees,WindSpeedMPH,WindSpeedGustMPH,Humidity,HourlyPrecipIn,Conditions,Clouds,dailyrainin,SoftwareType,DateUTC
2013-06-27 00:00:00,75.4,67.3,28.91,NNE,22,0.0,0.0,76,0.00,RA,,0.00,WeatherDisplay:10.37,2013-06-27 05:00:00,
2013-06-27 00:01:00,75.4,67.3,28.91,NNE,22,0.0,0.0,76,0.00,RA,,0.00,WeatherDisplay:10.37,2013-06-27 05:01:00,
2013-06-27 00:02:00,75.4,67.3,28.91,NNE,22,0.0,0.0,76,0.00,RA,,0.00,WeatherDisplay:10.37,2013-06-27 05:02:00,
2013-06-27 00:04:00,75.4,67.3,28.91,NNE,22,0.0,0.0,76,0.00,RA,,0.00,WeatherDisplay:10.37,2013-06-27 05:04:00,
2013-06-27 00:06:00,75.4,67.3,28.91,NNE,22,0.0,0.0,76,0.00,RA,,0.00,WeatherDisplay:10.37,2013-06-27 05:06:00,
2013-06-27 00:09:00,75.4,67.3,28.91,NNE,22,0.0,0.0,76,0.00,RA,,0.00,WeatherDisplay:10.37,2013-06-27 05:09:00,
2013-06-27 00:11:00,75.4,67.3,28.91,NNE,22,0.0,0.0,76,0.00,CLR,,0.00,WeatherDisplay:10.37,2013-06-27 05:11:00,
2013-06-27 00:14:00,75.2,67.1,28.91,NNE,22,0.0,0.0,76,0.00,CLR,,0.00,WeatherDisplay:10.37,2013-06-27 05:14:00,
2013-06-27 00:16:00,75.2,67.1,28.91,NNE,22,0.0,0.0,76,0.00,CLR,,0.00,WeatherDisplay:10.37,2013-06-27 05:16:00,
2013-06-27 00:19:00,75.2,67.1,28.91,North,7,0.0,0.0,76,0.00,CLR,,0.00,WeatherDisplay:10.37,2013-06-27 05:19:00,
2013-06-27 00:20:00,75.2,67.1,28.91,WSW,248,0.0,0.0,76,0.00,CLR,,0.00,WeatherDisplay:10.37,2013-06-27 05:20:00,
2013-06-27 00:22:00,75.2,67.1,28.91,SW,225,0.0,0.0,76,0.00,CLR,,0.00,WeatherDisplay:10.37,2013-06-27 05:22:00,
2013-06-27 00:23:00,75.2,67.1,28.91,West,270,2.0,0.0,76,0.00,CLR,,0.00,WeatherDisplay:10.37,2013-06-27 05:23:00,
2013-06-27 00:26:00,75.2,67.5,28.91,West,270,0.0,0.0,77,0.00,CLR,,0.00,WeatherDisplay:10.37,2013-06-27 05:26:00,
2013-06-27 00:27:00,75.2,67.5,28.91,West,270,0.0,0.0,77,0.00,CLR,,0.00,WeatherDisplay:10.37,2013-06-27 05:27:00,
2013-06-27 00:28:00,75.2,67.5,28.91,West,270,0.0,0.0,77,0.00,CLR,,0.00,WeatherDisplay:10.37,2013-06-27 05:28:00,
2013-06-27 00:29:00,75.2,67.5,28.91,West,270,0.0,0.0,77,0.00,CLR,,0.00,WeatherDisplay:10.37,2013-06-27 05:29:00,
2013-06-27 00:31:00,75.2,67.5,28.91,West,270,0.0,0.0,77,0.00,CLR,,0.00,WeatherDisplay:10.37,2013-06-27 05:31:00,
2013-06-27 00:34:00,75.0,67.3,28.91,West,270,0.0,0.0,77,0.00,CLR,,0.00,WeatherDisplay:10.37,2013-06-27 05:34:00,
2013-06-27 00:35:00,75.0,67.3,28.91,West,270,0.0,0.0,77,0.00,CLR,,0.00,WeatherDisplay:10.37,2013-06-27 05:35:00,
2013-06-27 00:36:00,75.0,67.3,28.91,West,270,0.0,0.0,77,0.00,CLR,,0.00,WeatherDisplay:10.37,2013-06-27 05:36:00,
2013-06-27 00:37:00,75.0,67.3,28.91,West,270,0.0,0.0,77,0.00,CLR,,0.00,WeatherDisplay:10.37,2013-06-27 05:37:00,
2013-06-27 00:39:00,75.0,67.3,28.91,West,270,0.0,0.0,77,0.00,CLR,,0.00,WeatherDisplay:10.37,2013-06-27 05:39:00,
2013-06-27 00:41:00,75.0,67.7,28.91,WNW,292,1.1,0.0,78,0.00,CLR,,0.00,WeatherDisplay:10.37,2013-06-27 05:41:00,
2013-06-27 00:42:00,75.0,67.7,28.91,NW,315,0.0,0.0,78,0.00,CLR,,0.00,WeatherDisplay:10.37,2013-06-27 05:42:00,
2013-06-27 00:43:00,75.0,67.7,28.91,NW,315,0.0,0.0,78,0.00,CLR,,0.00,WeatherDisplay:10.37,2013-06-27 05:43:00,
2013-06-27 00:46:00,75.2,67.9,28.91,WSW,248,2.9,0.0,78,0.00,CLR,,0.00,WeatherDisplay:10.37,2013-06-27 05:46:00,
2013-06-27 00:47:00,75.2,67.9,28.88,West,270,2.3,0.0,78,0.00,CLR,,0.00,WeatherDisplay:10.37,2013-06-27 05:47:00,
2013-06-27 00:48:00,75.2,67.9,28.88,West,270,2.3,0.0,78,0.00,CLR,,0.00,WeatherDisplay:10.37,2013-06-27 05:48:00,
2013-06-27 00:51:00,75.2,67.9,28.88,West,270,0.0,0.0,78,0.00,CLR,,0.00,WeatherDisplay:10.37,2013-06-27 05:51:00,
2013-06-27 00:52:00,75.2,67.9,28.88,West,270,0.0,0.0,78,0.00,CLR,,0.00,WeatherDisplay:10.37,2013-06-27 05:52:00,
2013-06-27 00:53:00,75.2,67.9,28.88,West,270,0.0,0.0,78,0.00,CLR,,0.00,WeatherDisplay:10.37,2013-06-27 05:53:00,
2013-06-27 00:54:00,75.2,67.9,28.88,West,270,0.0,0.0,78,0.00,CLR,,0.00,WeatherDisplay:10.37,2013-06-27 05:54:00,
2013-06-27 00:58:00,75.2,67.9,28.88,SW,225,0.0,0.0,78,0.00,CLR,,0.00,WeatherDisplay:10.37,2013-06-27 05:58:00,
2013-06-27 00:59:00,75.2,68.2,28.88,WSW,255,0.0,0.0,79,0.00,CLR,,0.00,WeatherDisplay:10.37,2013-06-27 05:59:00,
2013-06-27 01:00:00,75.2,67.9,28.88,SW,225,1.1,0.0,78,0.00,CLR,,0.00,WeatherDisplay:10.37,2013-06-27 06:00:00,
2013-06-27 01:02:00,75.2,67.9,28.91,WSW,248,0.0,0.0,78,0.00,CLR,,0.00,WeatherDisplay:10.37,2013-06-27 06:02:00,
2013-06-27 01:03:00,75.2,67.9,28.91,WSW,248,0.0,0.0,78,0.00,CLR,,0.00,WeatherDisplay:10.37,2013-06-27 06:03:00,
2013-06-27 01:04:00,75.2,67.9,28.91,NNW,338,0.0,0.0,78,0.00,CLR,,0.00,WeatherDisplay:10.37,2013-06-27 06:04:00,
2013-06-27 01:05:00,75.2,67.9,28.91,WSW,248,0.0,0.0,78,0.00,CLR,,0.00,WeatherDisplay:10.37,2013-06-27 06:05:00,
2013-06-27 01:06:00,75.2,67.9,28.91,WSW,248,0.0,0.0,78,0.00,CLR,,0.00,WeatherDisplay:10.37,2013-06-27 06:06:00,
2013-06-27 01:07:00,75.2,67.9,28.91,WSW,248,0.0,0.0,78,0.00,CLR,,0.00,WeatherDisplay:10.37,2013-06-27 06:07:00,
2013-06-27 01:08:00,75.2,67.9,28.91,WSW,248,1.1,0.0,78,0.00,CLR,,0.00,WeatherDisplay:10.37,2013-06-27 06:08:00,
2013-06-27 01:10:00,75.2,67.9,28.91,WSW,248,1.1,0.0,78,0.00,CLR,,0.00,WeatherDisplay:10.37,2013-06-27 06:10:00,
2013-06-27 01:11:00,75.2,68.2,28.91,West,270,0.0,0.0,79,0.00,CLR,,0.00,WeatherDisplay:10.37,2013-06-27 06:11:00,
2013-06-27 01:12:00,75.2,68.2,28.91,WSW,248,0.0,0.0,79,0.00,CLR,,0.00,WeatherDisplay:10.37,2013-06-27 06:12:00,
2013-06-27 01:15:00,75.2,68.2,28.91,SW,225,1.1,0.0,79,0.00,CLR,,0.00,WeatherDisplay:10.37,2013-06-27 06:15:00,
2013-06-27 01:16:00,75.2,68.2,28.91,SW,225,1.1,0.0,79,0.00,CLR,,0.00,WeatherDisplay:10.37,2013-06-27 06:16:00,
2013-06-27 01:17:00,75.2,68.2,28.91,NW,315,1.1,0.0,79,0.00,CLR,,0.00,WeatherDisplay:10.37,2013-06-27 06:17:00,
2013-06-27 01:20:00,75.2,68.2,28.91,SSW,202,0.0,0.0,79,0.00,CLR,,0.00,WeatherDisplay:10.37,2013-06-27 06:20:00,
2013-06-27 01:22:00,75.2,68.2,28.91,WSW,248,1.1,0.0,79,0.00,CLR,,0.00,WeatherDisplay:10.37,2013-06-27 06:22:00,
2013-06-27 01:23:00,75.2,68.2,28.91,SW,225,0.0,0.0,79,0.00,CLR,,0.00,WeatherDisplay:10.37,2013-06-27 06:23:00,
2013-06-27 01:27:00,75.2,68.2,28.91,WSW,248,0.0,0.0,79,0.00,CLR,,0.00,WeatherDisplay:10.37,2013-06-27 06:27:00,
2013-06-27 01:29:00,75.2,68.2,28.91,SSW,202,1.1,0.0,79,0.00,CLR,,0.00,WeatherDisplay:10.37,2013-06-27 06:29:00,
2013-06-27 01:30:00,75.2,68.2,28.91,SSW,202,0.0,0.0,79,0.00,CLR,,0.00,WeatherDisplay:10.37,2013-06-27 06:30:00,
2013-06-27 01:32:00,75.2,68.2,28.88,SSE,158,0.0,0.0,79,0.00,CLR,,0.00,WeatherDisplay:10.37,2013-06-27 06:32:00,
2013-06-27 01:34:00,75.2,68.2,28.88,SSW,202,0.0,0.0,79,0.00,CLR,,0.00,WeatherDisplay:10.37,2013-06-27 06:34:00,
2013-06-27 01:35:00,75.2,68.2,28.88,West,270,0.0,0.0,79,0.00,CLR,,0.00,WeatherDisplay:10.37,2013-06-27 06:35:00,
2013-06-27 01:38:00,75.2,68.6,28.88,West,270,1.1,0.0,80,0.00,CLR,,0.00,WeatherDisplay:10.37,2013-06-27 06:38:00,
2013-06-27 01:39:00,75.2,68.6,28.88,SW,226,0.0,0.0,80,0.00,CLR,,0.00,WeatherDisplay:10.37,2013-06-27 06:39:00,
2013-06-27 01:41:00,75.2,68.6,28.88,SSW,202,2.6,0.0,80,0.00,CLR,,0.00,WeatherDisplay:10.37,2013-06-27 06:41:00,
2013-06-27 01:44:00,75.0,68.4,28.88,WSW,254,0.0,0.0,80,0.00,CLR,,0.00,WeatherDisplay:10.37,2013-06-27 06:44:00,
2013-06-27 01:45:00,75.0,68.4,28.88,SW,225,0.0,0.0,80,0.00,CLR,,0.00,WeatherDisplay:10.37,2013-06-27 06:45:00,
2013-06-27 01:47:00,75.0,68.4,28.91,NNW,338,1.1,0.0,80,0.00,CLR,,0.00,WeatherDisplay:10.37,2013-06-27 06:47:00,
2013-06-27 01:49:00,75.0,68.4,28.91,NW,315,0.0,0.0,80,0.00,CLR,,0.00,WeatherDisplay:10.37,2013-06-27 06:49:00,
2013-06-27 01:50:00,75.0,68.4,28.91,NW,315,2.3,0.0,80,0.00,CLR,,0.00,WeatherDisplay:10.37,2013-06-27 06:50:00,
2013-06-27 01:52:00,75.0,68.4,28.91,WSW,248,3.5,3.5,80,0.00,CLR,,0.00,WeatherDisplay:10.37,2013-06-27 06:52:00,
2013-06-27 01:54:00,75.0,68.4,28.91,West,270,2.4,0.0,80,0.00,CLR,,0.00,WeatherDisplay:10.37,2013-06-27 06:54:00,
2013-06-27 01:55:00,75.0,68.8,28.91,WSW,248,2.3,2.3,81,0.00,CLR,,0.00,WeatherDisplay:10.37,2013-06-27 06:55:00,
2013-06-27 01:58:00,75.0,68.8,28.91,WNW,292,1.1,0.0,81,0.00,CLR,,0.00,WeatherDisplay:10.37,2013-06-27 06:58:00,
2013-06-27 01:59:00,74.8,68.3,28.91,West,270,2.3,2.3,80,0.00,CLR,,0.00,WeatherDisplay:10.37,2013-06-27 06:59:00,
2013-06-27 02:00:00,74.8,68.3,28.91,WNW,292,2.3,2.3,80,0.00,CLR,,0.00,WeatherDisplay:10.37,2013-06-27 07:00:00,
2013-06-27 02:02:00,74.8,68.3,28.91,WNW,292,1.4,0.0,80,0.00,CLR,,0.00,WeatherDisplay:10.37,2013-06-27 07:02:00,
2013-06-27 02:04:00,74.8,68.3,28.91,West,264,0.0,0.0,80,0.00,CLR,,0.00,WeatherDisplay:10.37,2013-06-27 07:04:00,
2013-06-27 02:06:00,74.8,68.3,28.91,WNW,292,2.3,0.0,80,0.00,CLR,,0.00,WeatherDisplay:10.37,2013-06-27 07:06:00,
2013-06-27 02:08:00,74.8,68.3,28.91,WSW,248,3.5,3.5,80,0.00,CLR,,0.00,WeatherDisplay:10.37,2013-06-27 07:08:00,
2013-06-27 02:09:00,74.7,68.1,28.91,SW,225,0.0,0.0,80,0.00,CLR,,0.00,WeatherDisplay:10.37,2013-06-27 07:09:00,
2013-06-27 02:11:00,74.7,68.1,28.91,West,270,0.0,0.0,80,0.00,CLR,,0.00,WeatherDisplay:10.37,2013-06-27 07:11:00,
2013-06-27 02:12:00,74.7,68.1,28.91,WSW,248,2.3,2.3,80,0.00,CLR,,0.00,WeatherDisplay:10.37,2013-06-27 07:12:00,
2013-06-27 02:13:00,74.7,68.1,28.91,West,270,2.3,2.3,80,0.00,CLR,,0.00,WeatherDisplay:10.37,2013-06-27 07:13:00,
2013-06-27 02:14:00,74.7,68.1,28.91,WSW,242,1.0,0.0,80,0.00,CLR,,0.00,WeatherDisplay:10.37,2013-06-27 07:14:00,
2013-06-27 02:17:00,74.7,68.4,28.91,WSW,248,2.3,0.0,81,0.00,CLR,,0.00,WeatherDisplay:10.37,2013-06-27 07:17:00,
2013-06-27 02:18:00,74.7,68.4,28.91,West,270,3.5,3.5,81,0.00,CLR,,0.00,WeatherDisplay:10.37,2013-06-27 07:18:00,
2013-06-27 02:19:00,74.6,68.4,28.91,WSW,255,2.0,0.0,81,0.00,CLR,,0.00,WeatherDisplay:10.37,2013-06-27 07:19:00,
2013-06-27 02:20:00,74.5,68.3,28.91,West,270,2.3,2.3,81,0.00,CLR,,0.00,WeatherDisplay:10.37,2013-06-27 07:20:00,
2013-06-27 02:23:00,74.5,68.3,28.91,West,270,2.3,0.0,81,0.00,CLR,,0.00,WeatherDisplay:10.37,2013-06-27 07:23:00,
2013-06-27 02:24:00,74.5,68.3,28.91,West,272,0.0,0.0,81,0.00,CLR,,0.00,WeatherDisplay:10.37,2013-06-27 07:24:00,
2013-06-27 02:25:00,74.5,68.3,28.91,West,270,2.3,2.3,81,0.00,CLR,,0.00,WeatherDisplay:10.37,2013-06-27 07:25:00,
2013-06-27 02:26:00,74.5,68.3,28.91,West,270,2.3,2.3,81,0.00,CLR,,0.00,WeatherDisplay:10.37,2013-06-27 07:26:00,
2013-06-27 02:27:00,74.5,68.3,28.91,West,270,2.3,2.3,81,0.00,CLR,,0.00,WeatherDisplay:10.37,2013-06-27 07:27:00,
2013-06-27 02:29:00,74.5,68.3,28.91,West,270,2.6,2.6,81,0.00,CLR,,0.00,WeatherDisplay:10.37,2013-06-27 07:29:00,
2013-06-27 02:30:00,74.5,68.3,28.91,West,270,2.3,0.0,81,0.00,CLR,,0.00,WeatherDisplay:10.37,2013-06-27 07:30:00,
2013-06-27 02:31:00,74.3,68.1,28.88,West,270,0.0,0.0,81,0.00,CLR,,0.00,WeatherDisplay:10.37,2013-06-27 07:31:00,
2013-06-27 02:32:00,74.3,68.1,28.88,NW,315,1.1,0.0,81,0.00,CLR,,0.00,WeatherDisplay:10.37,2013-06-27 07:32:00,
2013-06-27 02:35:00,74.3,68.1,28.88,West,270,2.3,2.3,81,0.00,CLR,,0.00,WeatherDisplay:10.37,2013-06-27 07:35:00,
2013-06-27 02:36:00,74.3,68.1,28.88,WNW,292,2.4,2.4,81,0.00,CLR,,0.00,WeatherDisplay:10.37,2013-06-27 07:36:00,
2013-06-27 02:37:00,74.3,68.1,28.88,NW,315,3.5,3.5,81,0.00,CLR,,0.00,WeatherDisplay:10.37,2013-06-27 07:37:00,
2013-06-27 02:38:00,74.3,68.1,28.88,WNW,292,3.5,3.5,81,0.00,CLR,,0.00,WeatherDisplay:10.37,2013-06-27 07:38:00,
2013-06-27 02:39:00,74.3,68.1,28.88,WNW,292,3.8,3.8,81,0.00,CLR,,0.00,WeatherDisplay:10.37,2013-06-27 07:39:00,
2013-06-27 02:41:00,74.1,67.9,28.88,West,270,3.5,3.5,81,0.00,CLR,,0.00,WeatherDisplay:10.37,2013-06-27 07:41:00,
2013-06-27 02:42:00,74.1,67.9,28.88,WNW,292,3.5,3.5,81,0.00,CLR,,0.00,WeatherDisplay:10.37,2013-06-27 07:42:00,
2013-06-27 02:43:00,74.1,67.9,28.88,WNW,292,4.6,4.6,81,0.00,CLR,,0.00,WeatherDisplay:10.37,2013-06-27 07:43:00,
2013-06-27 02:44:00,74.1,67.9,28.88,West,270,5.6,5.6,81,0.00,CLR,,0.00,WeatherDisplay:10.37,2013-06-27 07:44:00,
2013-06-27 02:45:00,74.1,67.9,28.88,WNW,292,5.8,5.8,81,0.00,CLR,,0.00,WeatherDisplay:10.37,2013-06-27 07:45:00,
2013-06-27 02:46:00,74.1,67.9,28.91,West,270,3.5,3.5,81,0.00,CLR,,0.00,WeatherDisplay:10.37,2013-06-27 07:46:00,
2013-06-27 02:47:00,74.1,67.9,28.91,WNW,292,3.6,3.6,81,0.00,CLR,,0.00,WeatherDisplay:10.37,2013-06-27 07:47:00,
2013-06-27 02:48:00,74.1,67.9,28.91,West,270,4.9,4.9,81,0.00,CLR,,0.00,WeatherDisplay:10.37,2013-06-27 07:48:00,
2013-06-27 02:49:00,74.1,67.9,28.91,WNW,284,3.0,0.0,81,0.00,CLR,,0.00,WeatherDisplay:10.37,2013-06-27 07:49:00,
2013-06-27 02:50:00,74.1,67.9,28.91,WNW,292,5.8,5.8,81,0.00,CLR,,0.00,WeatherDisplay:10.37,2013-06-27 07:50:00,
2013-06-27 02:52:00,74.1,67.9,28.91,WSW,248,5.8,5.8,81,0.00,CLR,,0.00,WeatherDisplay:10.37,2013-06-27 07:52:00,
2013-06-27 02:53:00,74.1,67.9,28.91,West,270,5.8,5.8,81,0.00,CLR,,0.00,WeatherDisplay:10.37,2013-06-27 07:53:00,
2013-06-27 02:54:00,74.1,67.9,28.91,WNW,282,5.0,0.0,81,0.00,CLR,,0.00,WeatherDisplay:10.37,2013-06-27 07:54:00,
2013-06-27 02:55:00,74.1,67.9,28.91,NNW,338,4.6,4.6,81,0.00,CLR,,0.00,WeatherDisplay:10.37,2013-06-27 07:55:00,
2013-06-27 02:58:00,73.9,67.7,28.91,WNW,292,5.8,5.8,81,0.00,CLR,,0.00,WeatherDisplay:10.37,2013-06-27 07:58:00,
2013-06-27 02:59:00,73.9,67.7,28.91,WNW,288,3.0,0.0,81,0.00,CLR,,0.00,WeatherDisplay:10.37,2013-06-27 07:59:00,
2013-06-27 03:00:00,73.9,67.7,28.91,West,270,5.8,5.8,81,0.00,CLR,,0.00,WeatherDisplay:10.37,2013-06-27 08:00:00,
2013-06-27 03:01:00,73.9,67.7,28.91,West,270,5.9,5.9,81,0.00,CLR,,0.00,WeatherDisplay:10.37,2013-06-27 08:01:00,
2013-06-27 03:02:00,73.9,67.7,28.91,WNW,292,5.8,5.8,81,0.00,CLR,,0.00,WeatherDisplay:10.37,2013-06-27 08:02:00,
2013-06-27 03:03:00,73.9,67.7,28.91,NW,315,5.8,5.8,81,0.00,CLR,,0.00,WeatherDisplay:10.37,2013-06-27 08:03:00,
2013-06-27 03:06:00,73.9,67.7,28.91,WNW,292,5.8,5.8,81,0.00,CLR,,0.00,WeatherDisplay:10.37,2013-06-27 08:06:00,
2013-06-27 03:07:00,73.9,67.7,28.91,West,270,5.9,5.9,81,0.00,CLR,,0.00,WeatherDisplay:10.37,2013-06-27 08:07:00,
2013-06-27 03:09:00,73.9,67.7,28.91,WNW,292,5.8,5.8,81,0.00,CLR,,0.00,WeatherDisplay:10.37,2013-06-27 08:09:00,
2013-06-27 03:12:00,73.9,67.7,28.91,West,270,3.8,3.8,81,0.00,CLR,,0.00,WeatherDisplay:10.37,2013-06-27 08:12:00,
2013-06-27 03:14:00,73.8,67.2,28.91,WNW,292,7.1,7.1,80,0.00,CLR,,0.00,WeatherDisplay:10.37,2013-06-27 08:14:00,
2013-06-27 03:15:00,73.8,67.2,28.91,WNW,292,6.9,6.9,80,0.00,CLR,,0.00,WeatherDisplay:10.37,2013-06-27 08:15:00,
2013-06-27 03:17:00,73.8,67.2,28.91,West,270,5.9,5.9,80,0.00,CLR,,0.00,WeatherDisplay:10.37,2013-06-27 08:17:00,
2013-06-27 03:18:00,73.8,67.2,28.91,NW,315,5.8,5.8,80,0.00,CLR,,0.00,WeatherDisplay:10.37,2013-06-27 08:18:00,
2013-06-27 03:20:00,73.8,67.2,28.91,West,270,4.6,4.6,80,0.00,CLR,,0.00,WeatherDisplay:10.37,2013-06-27 08:20:00,
2013-06-27 03:21:00,73.8,67.2,28.91,NW,315,3.5,3.6,80,0.00,CLR,,0.00,WeatherDisplay:10.37,2013-06-27 08:21:00,
2013-06-27 03:22:00,73.8,67.2,28.91,West,270,3.5,3.5,80,0.00,CLR,,0.00,WeatherDisplay:10.37,2013-06-27 08:22:00,
2013-06-27 03:23:00,73.8,67.2,28.91,NW,315,3.5,3.5,80,0.00,CLR,,0.00,WeatherDisplay:10.37,2013-06-27 08:23:00,
2013-06-27 03:26:00,73.8,67.2,28.91,West,270,3.5,3.5,80,0.00,CLR,,0.00,WeatherDisplay:10.37,2013-06-27 08:26:00,
2013-06-27 03:28:00,73.6,67.0,28.91,West,270,5.8,5.8,80,0.00,CLR,,0.00,WeatherDisplay:10.37,2013-06-27 08:28:00,
2013-06-27 03:29:00,73.6,67.0,28.91,West,270,6.9,6.9,80,0.00,CLR,,0.00,WeatherDisplay:10.37,2013-06-27 08:29:00,
2013-06-27 03:31:00,73.6,67.0,28.91,WNW,292,4.6,4.6,80,0.00,CLR,,0.00,WeatherDisplay:10.37,2013-06-27 08:31:00,
2013-06-27 03:32:00,73.6,67.0,28.91,West,270,3.5,3.5,80,0.00,CLR,,0.00,WeatherDisplay:10.37,2013-06-27 08:32:00,
2013-06-27 03:33:00,73.4,66.9,28.91,West,270,4.6,4.6,80,0.00,CLR,,0.00,WeatherDisplay:10.37,2013-06-27 08:33:00,
2013-06-27 03:34:00,73.4,66.9,28.91,WNW,292,4.6,4.6,80,0.00,CLR,,0.00,WeatherDisplay:10.37,2013-06-27 08:34:00,
2013-06-27 03:36:00,73.4,66.5,28.91,West,270,3.8,4.3,79,0.00,CLR,,0.00,WeatherDisplay:10.37,2013-06-27 08:36:00,
2013-06-27 03:37:00,73.4,66.5,28.91,WNW,292,5.8,5.8,79,0.00,CLR,,0.00,WeatherDisplay:10.37,2013-06-27 08:37:00,
2013-06-27 03:39:00,73.4,66.5,28.91,WNW,292,5.8,5.8,79,0.00,CLR,,0.00,WeatherDisplay:10.37,2013-06-27 08:39:00,
2013-06-27 03:40:00,73.4,66.5,28.91,WNW,289,5.0,0.0,79,0.00,CLR,,0.00,WeatherDisplay:10.37,2013-06-27 08:40:00,
2013-06-27 03:42:00,73.4,66.5,28.91,WNW,292,5.8,5.8,79,0.00,CLR,,0.00,WeatherDisplay:10.37,2013-06-27 08:42:00,
2013-06-27 03:44:00,73.2,66.3,28.91,West,270,3.6,3.6,79,0.00,CLR,,0.00,WeatherDisplay:10.37,2013-06-27 08:44:00,
2013-06-27 03:45:00,73.2,66.3,28.91,WNW,292,4.6,4.6,79,0.00,CLR,,0.00,WeatherDisplay:10.37,2013-06-27 08:45:00,
2013-06-27 03:47:00,73.2,66.3,28.91,West,270,4.6,4.6,79,0.00,CLR,,0.00,WeatherDisplay:10.37,2013-06-27 08:47:00,
2013-06-27 03:49:00,73.0,66.1,28.91,WNW,292,3.5,3.5,79,0.00,CLR,,0.00,WeatherDisplay:10.37,2013-06-27 08:49:00,
2013-06-27 03:50:00,73.0,66.1,28.91,West,270,5.9,5.9,79,0.00,CLR,,0.00,WeatherDisplay:10.37,2013-06-27 08:50:00,
2013-06-27 03:52:00,73.0,66.1,28.91,NW,315,5.8,5.8,79,0.00,CLR,,0.00,WeatherDisplay:10.37,2013-06-27 08:52:00,
2013-06-27 03:53:00,73.0,66.1,28.91,West,270,4.6,4.6,79,0.00,CLR,,0.00,WeatherDisplay:10.37,2013-06-27 08:53:00,
2013-06-27 03:54:00,73.0,66.1,28.91,WNW,292,4.6,4.6,79,0.00,CLR,,0.00,WeatherDisplay:10.37,2013-06-27 08:54:00,
2013-06-27 03:55:00,73.0,66.1,28.91,WNW,283,3.0,0.0,79,0.00,CLR,,0.00,WeatherDisplay:10.37,2013-06-27 08:55:00,
2013-06-27 03:57:00,73.0,66.1,28.91,West,270,3.5,3.5,79,0.00,CLR,,0.00,WeatherDisplay:10.37,2013-06-27 08:57:00,
2013-06-27 03:59:00,72.9,66.0,28.91,WNW,292,4.6,4.6,79,0.00,CLR,,0.00,WeatherDisplay:10.37,2013-06-27 08:59:00,
2013-06-27 04:00:00,72.9,66.0,28.91,WNW,286,3.0,0.0,79,0.00,CLR,,0.00,WeatherDisplay:10.37,2013-06-27 09:00:00,
2013-06-27 04:02:00,72.9,65.6,28.91,West,270,5.4,5.4,78,0.00,CLR,,0.00,WeatherDisplay:10.37,2013-06-27 09:02:00,
2013-06-27 04:03:00,72.9,65.6,28.91,West,270,5.8,5.8,78,0.00,CLR,,0.00,WeatherDisplay:10.37,2013-06-27 09:03:00,
2013-06-27 04:05:00,72.9,65.6,28.91,WNW,285,2.0,0.0,78,0.00,CLR,,0.00,WeatherDisplay:10.37,2013-06-27 09:05:00,
2013-06-27 04:07:00,72.7,65.4,28.91,West,270,3.5,3.5,78,0.00,CLR,,0.00,WeatherDisplay:10.37,2013-06-27 09:07:00,
2013-06-27 04:08:00,72.7,65.4,28.91,West,270,3.6,3.6,78,0.00,CLR,,0.00,WeatherDisplay:10.37,2013-06-27 09:08:00,
2013-06-27 04:10:00,72.7,65.4,28.91,West,270,4.6,4.6,78,0.00,CLR,,0.00,WeatherDisplay:10.37,2013-06-27 09:10:00,
2013-06-27 04:11:00,72.7,65.4,28.91,WNW,292,3.1,3.1,78,0.00,CLR,,0.00,WeatherDisplay:10.37,2013-06-27 09:11:00,
2013-06-27 04:14:00,72.5,65.2,28.91,West,270,4.6,4.6,78,0.00,CLR,,0.00,WeatherDisplay:10.37,2013-06-27 09:14:00,
2013-06-27 04:15:00,72.5,65.2,28.91,West,279,3.0,0.0,78,0.00,CLR,,0.00,WeatherDisplay:10.37,2013-06-27 09:15:00,
2013-06-27 04:16:00,72.5,65.2,28.91,WNW,292,5.8,5.8,78,0.00,CLR,,0.00,WeatherDisplay:10.37,2013-06-27 09:16:00,
2013-06-27 04:19:00,72.3,65.1,28.91,West,270,3.5,3.5,78,0.00,CLR,,0.00,WeatherDisplay:10.37,2013-06-27 09:19:00,
2013-06-27 04:20:00,72.3,65.1,28.91,WNW,292,4.6,4.6,78,0.00,CLR,,0.00,WeatherDisplay:10.37,2013-06-27 09:20:00,
2013-06-27 04:21:00,72.3,65.1,28.91,NW,315,5.9,5.9,78,0.00,CLR,,0.00,WeatherDisplay:10.37,2013-06-27 09:21:00,
2013-06-27 04:25:00,72.3,65.1,28.91,West,270,5.6,5.6,78,0.00,CLR,,0.00,WeatherDisplay:10.37,2013-06-27 09:25:00,
2013-06-27 04:26:00,72.3,65.1,28.91,WNW,292,5.9,5.9,78,0.00,CLR,,0.00,WeatherDisplay:10.37,2013-06-27 09:26:00,
2013-06-27 04:27:00,72.3,65.1,28.91,West,270,5.8,5.8,78,0.00,CLR,,0.00,WeatherDisplay:10.37,2013-06-27 09:27:00,
2013-06-27 04:29:00,72.1,64.9,28.91,WNW,292,4.6,4.6,78,0.00,CLR,,0.00,WeatherDisplay:10.37,2013-06-27 09:29:00,
2013-06-27 04:32:00,72.1,64.9,28.94,West,270,5.4,5.4,78,0.00,CLR,,0.00,WeatherDisplay:10.37,2013-06-27 09:32:00,
2013-06-27 04:33:00,72.1,64.9,28.94,WNW,292,5.8,5.8,78,0.00,CLR,,0.00,WeatherDisplay:10.37,2013-06-27 09:33:00,
2013-06-27 04:34:00,72.1,64.9,28.94,West,270,4.6,4.6,78,0.00,CLR,,0.00,WeatherDisplay:10.37,2013-06-27 09:34:00,
2013-06-27 04:35:00,72.1,64.5,28.94,West,270,4.6,4.6,77,0.00,CLR,,0.00,WeatherDisplay:10.37,2013-06-27 09:35:00,
2013-06-27 04:39:00,72.0,64.4,28.94,West,270,5.8,5.8,77,0.00,CLR,,0.00,WeatherDisplay:10.37,2013-06-27 09:39:00,
2013-06-27 04:40:00,72.0,64.4,28.94,WNW,282,3.0,0.0,77,0.00,CLR,,0.00,WeatherDisplay:10.37,2013-06-27 09:40:00,
2013-06-27 04:41:00,72.0,64.4,28.94,WNW,292,5.8,5.8,77,0.00,CLR,,0.00,WeatherDisplay:10.37,2013-06-27 09:41:00,
2013-06-27 04:44:00,72.0,64.4,28.94,West,270,3.5,3.5,77,0.00,CLR,,0.00,WeatherDisplay:10.37,2013-06-27 09:44:00,
2013-06-27 04:45:00,72.0,64.4,28.94,WNW,284,2.0,0.0,77,0.00,CLR,,0.00,WeatherDisplay:10.37,2013-06-27 09:45:00,
2013-06-27 04:46:00,72.0,64.4,28.94,NNW,338,4.9,4.9,77,0.00,CLR,,0.00,WeatherDisplay:10.37,2013-06-27 09:46:00,
2013-06-27 04:47:00,72.0,64.4,28.94,West,270,4.6,4.6,77,0.00,CLR,,0.00,WeatherDisplay:10.37,2013-06-27 09:47:00,
2013-06-27 04:50:00,71.8,64.2,28.94,West,270,3.5,3.5,77,0.00,CLR,,0.00,WeatherDisplay:10.37,2013-06-27 09:50:00,
2013-06-27 04:51:00,71.8,64.2,28.94,NW,315,3.6,3.6,77,0.00,CLR,,0.00,WeatherDisplay:10.37,2013-06-27 09:51:00,
2013-06-27 04:53:00,71.8,64.2,28.94,WNW,292,2.9,2.9,77,0.00,CLR,,0.00,WeatherDisplay:10.37,2013-06-27 09:53:00,
2013-06-27 04:55:00,71.8,64.2,28.94,West,270,2.3,2.3,77,0.00,CLR,,0.00,WeatherDisplay:10.37,2013-06-27 09:55:00,
2013-06-27 04:58:00,71.6,63.6,28.94,West,270,2.3,0.0,76,0.00,CLR,,0.00,WeatherDisplay:10.37,2013-06-27 09:58:00,
2013-06-27 05:00:00,71.6,63.6,28.94,WNW,282,0.0,0.0,76,0.00,CLR,,0.00,WeatherDisplay:10.37,2013-06-27 10:00:00,
2013-06-27 05:02:00,71.6,63.6,28.97,NW,315,2.3,2.3,76,0.00,CLR,,0.00,WeatherDisplay:10.37,2013-06-27 10:02:00,
2013-06-27 05:03:00,71.6,63.6,28.97,West,270,2.3,0.0,76,0.00,CLR,,0.00,WeatherDisplay:10.37,2013-06-27 10:03:00,
2013-06-27 05:04:00,71.4,63.8,28.97,SW,225,2.3,2.3,77,0.00,CLR,,0.00,WeatherDisplay:10.37,2013-06-27 10:04:00,
2013-06-27 05:05:00,71.4,63.8,28.97,SW,225,2.4,0.0,77,0.00,CLR,,0.00,WeatherDisplay:10.37,2013-06-27 10:05:00,
2013-06-27 05:07:00,71.4,63.8,28.97,West,270,2.3,2.4,77,0.00,CLR,,0.00,WeatherDisplay:10.37,2013-06-27 10:07:00,
2013-06-27 05:08:00,71.4,63.8,28.97,WNW,292,2.3,2.3,77,0.00,CLR,,0.00,WeatherDisplay:10.37,2013-06-27 10:08:00,
2013-06-27 05:09:00,71.4,63.8,28.97,West,270,2.3,2.3,77,0.00,CLR,,0.00,WeatherDisplay:10.37,2013-06-27 10:09:00,
2013-06-27 05:12:00,71.2,63.7,28.97,WNW,292,2.3,2.3,77,0.00,CLR,,0.00,WeatherDisplay:10.37,2013-06-27 10:12:00,
2013-06-27 05:14:00,71.2,63.7,28.97,NW,315,2.3,2.3,77,0.00,CLR,,0.00,WeatherDisplay:10.37,2013-06-27 10:14:00,
2013-06-27 05:15:00,71.2,63.7,28.97,West,279,1.0,0.0,77,0.00,CLR,,0.00,WeatherDisplay:10.37,2013-06-27 10:15:00,
2013-06-27 05:16:00,71.2,63.7,28.97,West,270,4.6,4.6,77,0.00,CLR,,0.00,WeatherDisplay:10.37,2013-06-27 10:16:00,
2013-06-27 05:18:00,71.1,63.5,28.97,WNW,292,4.6,4.6,77,0.00,CLR,,0.00,WeatherDisplay:10.37,2013-06-27 10:18:00,
2013-06-27 05:19:00,71.1,63.5,28.97,WNW,292,5.8,5.8,77,0.00,CLR,,0.00,WeatherDisplay:10.37,2013-06-27 10:19:00,
2013-06-27 05:20:00,71.1,63.5,28.97,WNW,292,4.6,4.6,77,0.00,CLR,,0.00,WeatherDisplay:10.37,2013-06-27 10:20:00,
2013-06-27 05:22:00,71.1,63.5,28.97,NW,315,3.5,3.5,77,0.00,CLR,,0.00,WeatherDisplay:10.37,2013-06-27 10:22:00,
2013-06-27 05:25:00,71.1,63.5,28.97,West,270,6.0,6.0,77,0.00,CLR,,0.00,WeatherDisplay:10.37,2013-06-27 10:25:00,
2013-06-27 05:26:00,71.1,63.5,28.97,West,270,5.8,5.8,77,0.00,CLR,,0.00,WeatherDisplay:10.37,2013-06-27 10:26:00,
2013-06-27 05:27:00,71.1,63.5,28.97,West,270,4.6,4.6,77,0.00,CLR,,0.00,WeatherDisplay:10.37,2013-06-27 10:27:00,
2013-06-27 05:30:00,70.9,63.3,28.97,West,270,2.9,2.9,77,0.00,CLR,,0.00,WeatherDisplay:10.37,2013-06-27 10:30:00,
2013-06-27 05:31:00,70.9,63.3,28.97,West,270,4.3,4.3,77,0.00,CLR,,0.00,WeatherDisplay:10.37,2013-06-27 10:31:00,
2013-06-27 05:32:00,70.9,63.3,28.97,WNW,292,5.4,5.4,77,0.00,CLR,,0.00,WeatherDisplay:10.37,2013-06-27 10:32:00,
2013-06-27 05:33:00,70.9,63.3,28.97,West,270,5.8,5.8,77,0.00,CLR,,0.00,WeatherDisplay:10.37,2013-06-27 10:33:00,
2013-06-27 05:36:00,70.9,63.3,28.97,WNW,292,2.9,3.1,77,0.00,CLR,,0.00,WeatherDisplay:10.37,2013-06-27 10:36:00,
2013-06-27 05:37:00,70.9,63.3,28.97,West,270,3.6,3.6,77,0.00,CLR,,0.00,WeatherDisplay:10.37,2013-06-27 10:37:00,
2013-06-27 05:38:00,70.9,63.3,28.97,West,270,3.8,3.8,77,0.00,CLR,,0.00,WeatherDisplay:10.37,2013-06-27 10:38:00,
2013-06-27 05:39:00,70.9,63.3,28.97,WNW,292,3.5,3.5,77,0.00,CLR,,0.00,WeatherDisplay:10.37,2013-06-27 10:39:00,
2013-06-27 05:42:00,70.9,63.3,28.97,WNW,292,4.6,4.6,77,0.00,CLR,,0.00,WeatherDisplay:10.37,2013-06-27 10:42:00,
2013-06-27 05:43:00,70.9,63.3,28.97,West,270,4.6,4.6,77,0.00,CLR,,0.00,WeatherDisplay:10.37,2013-06-27 10:43:00,
2013-06-27 05:44:00,70.9,63.3,28.97,West,270,3.5,3.5,77,0.00,CLR,,0.00,WeatherDisplay:10.37,2013-06-27 10:44:00,
2013-06-27 05:45:00,70.9,63.3,28.97,West,281,3.0,0.0,77,0.00,CLR,,0.00,WeatherDisplay:10.37,2013-06-27 10:45:00,
2013-06-27 05:48:00,70.9,63.3,28.94,West,270,4.6,4.6,77,0.00,CLR,,0.00,WeatherDisplay:10.37,2013-06-27 10:48:00,
2013-06-27 05:49:00,70.9,63.3,28.94,WNW,292,3.5,3.5,77,0.00,CLR,,0.00,WeatherDisplay:10.37,2013-06-27 10:49:00,
2013-06-27 05:50:00,70.9,63.3,28.94,West,270,3.5,3.5,77,0.00,CLR,,0.00,WeatherDisplay:10.37,2013-06-27 10:50:00,
2013-06-27 05:53:00,70.9,63.3,28.94,WNW,292,3.5,3.5,77,0.00,CLR,,0.00,WeatherDisplay:10.37,2013-06-27 10:53:00,
2013-06-27 05:55:00,70.9,63.3,28.94,West,279,2.0,0.0,77,0.00,CLR,,0.00,WeatherDisplay:10.37,2013-06-27 10:55:00,
2013-06-27 05:58:00,71.1,63.5,28.94,West,270,3.5,3.5,77,0.00,CLR,,0.00,WeatherDisplay:10.37,2013-06-27 10:58:00,
2013-06-27 05:59:00,71.1,63.5,28.94,West,270,3.5,3.5,77,0.00,CLR,,0.00,WeatherDisplay:10.37,2013-06-27 10:59:00,
2013-06-27 06:01:00,71.1,63.5,28.94,NNW,338,3.5,3.5,77,0.00,CLR,,0.00,WeatherDisplay:10.37,2013-06-27 11:01:00,
2013-06-27 06:02:00,71.1,63.5,28.94,WNW,292,3.5,3.5,77,0.00,CLR,,0.00,WeatherDisplay:10.37,2013-06-27 11:02:00,
2013-06-27 06:03:00,71.1,63.5,28.94,West,270,3.5,3.5,77,0.00,CLR,,0.00,WeatherDisplay:10.37,2013-06-27 11:03:00,
2013-06-27 06:05:00,71.1,63.5,28.94,West,278,2.0,0.0,77,0.00,CLR,,0.00,WeatherDisplay:10.37,2013-06-27 11:05:00,
2013-06-27 06:06:00,71.1,63.5,28.94,WNW,292,3.1,3.1,77,0.00,CLR,,0.00,WeatherDisplay:10.37,2013-06-27 11:06:00,
2013-06-27 06:10:00,71.2,63.7,28.94,WNW,295,2.0,0.0,77,0.00,CLR,,0.00,WeatherDisplay:10.37,2013-06-27 11:10:00,
2013-06-27 06:11:00,71.2,63.7,28.94,SW,225,3.1,3.1,77,0.00,CLR,,0.00,WeatherDisplay:10.37,2013-06-27 11:11:00,
2013-06-27 06:12:00,71.2,63.7,28.94,West,270,3.5,3.5,77,0.00,CLR,,0.00,WeatherDisplay:10.37,2013-06-27 11:12:00,
2013-06-27 06:14:00,71.2,63.7,28.94,WSW,248,3.5,3.5,77,0.00,CLR,,0.00,WeatherDisplay:10.37,2013-06-27 11:14:00,
2013-06-27 06:16:00,71.2,63.3,28.97,NW,315,2.3,2.3,76,0.00,CLR,,0.00,WeatherDisplay:10.37,2013-06-27 11:16:00,
2013-06-27 06:17:00,71.2,63.3,28.97,West,270,2.3,2.3,76,0.00,CLR,,0.00,WeatherDisplay:10.37,2013-06-27 11:17:00,
2013-06-27 06:19:00,71.4,63.5,28.97,SW,225,3.5,3.5,76,0.00,CLR,,0.00,WeatherDisplay:10.37,2013-06-27 11:19:00,
2013-06-27 06:22:00,71.4,63.5,28.97,West,270,4.6,4.6,76,0.00,CLR,,0.00,WeatherDisplay:10.37,2013-06-27 11:22:00,
2013-06-27 06:24:00,71.6,63.6,28.97,WNW,292,2.3,2.3,76,0.00,CLR,,0.00,WeatherDisplay:10.37,2013-06-27 11:24:00,
2013-06-27 06:25:00,71.6,63.6,28.97,West,281,2.0,0.0,76,0.00,CLR,,0.00,WeatherDisplay:10.37,2013-06-27 11:25:00,
2013-06-27 06:27:00,72.0,64.0,28.97,WNW,292,4.6,4.6,76,0.00,CLR,,0.00,WeatherDisplay:10.37,2013-06-27 11:27:00,
2013-06-27 06:30:00,72.7,65.1,28.97,WNW,292,5.8,5.8,77,0.00,CLR,,0.00,WeatherDisplay:10.37,2013-06-27 11:30:00,
2013-06-27 06:31:00,73.0,65.4,28.97,WNW,292,5.8,5.8,77,0.00,CLR,,0.00,WeatherDisplay:10.37,2013-06-27 11:31:00,
2013-06-27 06:32:00,73.2,65.2,28.97,WNW,292,5.8,5.8,76,0.00,CLR,,0.00,WeatherDisplay:10.37,2013-06-27 11:32:00,
2013-06-27 06:34:00,73.9,65.9,28.97,WNW,292,4.6,4.6,76,0.00,CLR,,0.00,WeatherDisplay:10.37,2013-06-27 11:34:00,
2013-06-27 06:37:00,74.7,66.2,28.97,WNW,292,4.6,4.6,75,0.00,CLR,,0.00,WeatherDisplay:10.37,2013-06-27 11:37:00,
2013-06-27 06:39:00,75.6,65.9,28.97,NW,315,4.6,4.6,72,0.00,CLR,,0.00,WeatherDisplay:10.37,2013-06-27 11:39:00,
2013-06-27 06:40:00,75.6,65.9,28.97,NW,315,4.6,4.6,72,0.00,CLR,,0.00,WeatherDisplay:10.37,2013-06-27 11:40:00,
2013-06-27 06:42:00,76.3,65.8,28.97,WNW,292,5.8,5.8,70,0.00,CLR,,0.00,WeatherDisplay:10.37,2013-06-27 11:42:00,
2013-06-27 06:44:00,77.0,65.6,28.97,WNW,292,5.8,5.8,68,0.00,CLR,,0.00,WeatherDisplay:10.37,2013-06-27 11:44:00,
2013-06-27 06:45:00,76.9,65.6,28.97,WNW,288,3.0,0.0,68,0.00,CLR,,0.00,WeatherDisplay:10.37,2013-06-27 11:45:00,
2013-06-27 06:46:00,77.2,65.4,28.97,WNW,292,3.5,3.5,67,0.00,CLR,,0.00,WeatherDisplay:10.37,2013-06-27 11:46:00,
2013-06-27 06:49:00,78.1,65.4,28.97,NW,315,5.8,5.8,65,0.00,CLR,,0.00,WeatherDisplay:10.37,2013-06-27 11:49:00,
2013-06-27 06:50:00,78.1,64.0,28.97,WNW,292,5.8,5.8,62,0.00,CLR,,0.00,WeatherDisplay:10.37,2013-06-27 11:50:00,
2013-06-27 06:52:00,78.4,63.4,28.97,WSW,248,5.8,5.8,60,0.00,CLR,,0.00,WeatherDisplay:10.37,2013-06-27 11:52:00,
2013-06-27 06:55:00,79.3,64.2,28.97,West,270,4.6,4.6,60,0.00,CLR,,0.00,WeatherDisplay:10.37,2013-06-27 11:55:00,
2013-06-27 06:56:00,79.3,62.8,28.97,WNW,292,4.6,4.6,57,0.00,CLR,,0.00,WeatherDisplay:10.37,2013-06-27 11:56:00,
2013-06-27 06:58:00,80.1,62.9,28.97,NNW,338,6.9,6.9,56,0.00,CLR,,0.00,WeatherDisplay:10.37,2013-06-27 11:58:00,
2013-06-27 07:01:00,80.6,62.9,28.97,West,270,4.6,4.6,55,0.00,CLR,,0.00,WeatherDisplay:10.37,2013-06-27 12:01:00,
2013-06-27 07:02:00,80.8,62.1,28.97,WNW,292,4.9,4.9,53,0.00,CLR,,0.00,WeatherDisplay:10.37,2013-06-27 12:02:00,
2013-06-27 07:04:00,81.1,61.3,28.97,WNW,292,4.6,4.6,51,0.00,CLR,,0.00,WeatherDisplay:10.37,2013-06-27 12:04:00,
2013-06-27 07:06:00,81.9,62.5,28.97,NW,315,5.8,5.8,52,0.00,CLR,,0.00,WeatherDisplay:10.37,2013-06-27 12:06:00,
2013-06-27 07:07:00,82.0,61.6,28.97,WNW,292,5.9,5.9,50,0.00,CLR,,0.00,WeatherDisplay:10.37,2013-06-27 12:07:00,
2013-06-27 07:08:00,82.4,61.3,28.97,WNW,292,5.8,5.8,49,0.00,CLR,,0.00,WeatherDisplay:10.37,2013-06-27 12:08:00,
2013-06-27 07:10:00,82.6,59.7,28.97,West,270,5.8,5.8,46,0.00,CLR,,0.00,WeatherDisplay:10.37,2013-06-27 12:10:00,
2013-06-27 07:11:00,82.6,59.7,28.97,NW,315,5.8,5.8,46,0.00,CLR,,0.00,WeatherDisplay:10.37,2013-06-27 12:11:00,
2013-06-27 07:12:00,82.6,59.1,28.97,WNW,292,3.5,3.5,45,0.00,CLR,,0.00,WeatherDisplay:10.37,2013-06-27 12:12:00,
2013-06-27 07:14:00,83.3,60.4,28.97,WNW,292,4.6,4.6,46,0.00,CLR,,0.00,WeatherDisplay:10.37,2013-06-27 12:14:00,
2013-06-27 07:16:00,83.3,58.5,28.97,NW,315,5.8,5.8,43,0.00,CLR,,0.00,WeatherDisplay:10.37,2013-06-27 12:16:00,
2013-06-27 07:19:00,84.0,59.1,28.97,NW,315,8.1,8.1,43,0.00,CLR,,0.00,WeatherDisplay:10.37,2013-06-27 12:19:00,
2013-06-27 07:21:00,84.2,57.9,28.97,WNW,292,6.9,6.9,41,0.00,CLR,,0.00,WeatherDisplay:10.37,2013-06-27 12:21:00,
2013-06-27 07:22:00,84.2,58.6,28.97,WNW,292,7.6,7.6,42,0.00,CLR,,0.00,WeatherDisplay:10.37,2013-06-27 12:22:00,
2013-06-27 07:23:00,84.2,58.6,28.97,West,270,8.1,8.1,42,0.00,CLR,,0.00,WeatherDisplay:10.37,2013-06-27 12:23:00,
2013-06-27 07:24:00,84.4,57.4,28.97,West,270,4.9,4.9,40,0.00,CLR,,0.00,WeatherDisplay:10.37,2013-06-27 12:24:00,
2013-06-27 07:25:00,84.4,57.4,28.97,WNW,291,5.0,0.0,40,0.00,CLR,,0.00,WeatherDisplay:10.37,2013-06-27 12:25:00,
2013-06-27 07:27:00,84.7,57.7,28.97,West,270,3.5,3.5,40,0.00,CLR,,0.00,WeatherDisplay:10.37,2013-06-27 12:27:00,
2013-06-27 07:29:00,85.3,58.2,28.97,West,270,5.8,5.8,40,0.00,CLR,,0.00,WeatherDisplay:10.37,2013-06-27 12:29:00,
2013-06-27 07:30:00,85.5,58.4,28.97,NW,315,5.8,5.8,40,0.00,CLR,,0.00,WeatherDisplay:10.37,2013-06-27 12:30:00,
2013-06-27 07:32:00,85.8,58.7,28.97,WNW,292,5.8,5.8,40,0.00,CLR,,0.00,WeatherDisplay:10.37,2013-06-27 12:32:00,
2013-06-27 07:34:00,86.2,58.3,28.97,West,270,6.9,6.9,39,0.00,CLR,,0.00,WeatherDisplay:10.37,2013-06-27 12:34:00,
2013-06-27 07:35:00,86.0,57.4,28.97,WNW,290,6.0,0.0,38,0.00,CLR,,0.00,WeatherDisplay:10.37,2013-06-27 12:35:00,
2013-06-27 07:36:00,86.2,57.6,28.97,West,270,9.2,9.2,38,0.00,CLR,,0.00,WeatherDisplay:10.37,2013-06-27 12:36:00,
2013-06-27 07:39:00,86.5,57.9,28.97,West,270,6.9,6.9,38,0.00,CLR,,0.00,WeatherDisplay:10.37,2013-06-27 12:39:00,
2013-06-27 07:40:00,86.4,57.1,28.97,WNW,288,6.0,0.0,37,0.00,CLR,,0.00,WeatherDisplay:10.37,2013-06-27 12:40:00,
2013-06-27 07:41:00,86.5,57.2,28.97,West,270,5.8,5.8,37,0.00,CLR,,0.00,WeatherDisplay:10.37,2013-06-27 12:41:00,
2013-06-27 07:45:00,86.9,57.5,28.97,West,270,6.9,6.9,37,0.00,CLR,,0.00,WeatherDisplay:10.37,2013-06-27 12:45:00,
2013-06-27 07:46:00,86.9,56.7,28.97,West,270,6.2,6.2,36,0.00,CLR,,0.00,WeatherDisplay:10.37,2013-06-27 12:46:00,
2013-06-27 07:47:00,86.9,56.0,28.97,WNW,292,6.9,6.9,35,0.00,CLR,,0.00,WeatherDisplay:10.37,2013-06-27 12:47:00,
2013-06-27 07:48:00,87.1,56.9,28.97,NW,315,6.9,6.9,36,0.00,CLR,,0.00,WeatherDisplay:10.37,2013-06-27 12:48:00,
2013-06-27 07:50:00,87.6,57.4,28.97,West,270,8.1,8.1,36,0.00,CLR,,0.00,WeatherDisplay:10.37,2013-06-27 12:50:00,
2013-06-27 07:51:00,87.4,56.4,28.97,WNW,292,9.2,9.2,35,0.00,CLR,,0.00,WeatherDisplay:10.37,2013-06-27 12:51:00,
2013-06-27 07:52:00,87.3,55.5,28.97,WNW,292,5.8,5.8,34,0.00,CLR,,0.00,WeatherDisplay:10.37,2013-06-27 12:52:00,
2013-06-27 07:54:00,87.4,56.4,28.97,WNW,292,9.2,9.2,35,0.00,CLR,,0.00,WeatherDisplay:10.37,2013-06-27 12:54:00,
2013-06-27 07:55:00,87.4,56.4,28.97,WNW,292,9.2,9.2,35,0.00,CLR,,0.00,WeatherDisplay:10.37,2013-06-27 12:55:00,
2013-06-27 07:56:00,86.9,53.5,28.97,West,270,10.4,10.4,32,0.00,CLR,,0.00,WeatherDisplay:10.37,2013-06-27 12:56:00,
2013-06-27 07:58:00,86.7,54.2,28.97,WNW,292,12.7,12.7,33,0.00,CLR,,0.00,WeatherDisplay:10.37,2013-06-27 12:58:00,
2013-06-27 08:00:00,86.5,54.8,28.97,WNW,284,7.0,0.0,34,0.00,CLR,,0.00,WeatherDisplay:10.37,2013-06-27 13:00:00,
2013-06-27 08:02:00,86.4,54.7,28.97,WNW,292,6.9,6.9,34,0.00,CLR,,0.00,WeatherDisplay:10.37,2013-06-27 13:02:00,
2013-06-27 08:04:00,86.2,55.3,28.97,WNW,292,12.1,12.1,35,0.00,CLR,,0.00,WeatherDisplay:10.37,2013-06-27 13:04:00,
2013-06-27 08:05:00,85.6,54.0,28.97,WNW,292,6.9,8.1,34,0.00,CLR,,0.00,WeatherDisplay:10.37,2013-06-27 13:05:00,
2013-06-27 08:07:00,85.5,54.7,28.97,North,0,6.9,6.9,35,0.00,CLR,,0.00,WeatherDisplay:10.37,2013-06-27 13:07:00,
2013-06-27 08:08:00,85.5,54.7,28.97,NW,315,6.9,6.9,35,0.00,CLR,,0.00,WeatherDisplay:10.37,2013-06-27 13:08:00,
2013-06-27 08:10:00,85.3,54.5,28.97,WNW,290,3.0,0.0,35,0.00,CLR,,0.00,WeatherDisplay:10.37,2013-06-27 13:10:00,
2013-06-27 08:12:00,85.3,54.5,28.97,NW,315,6.2,6.2,35,0.00,CLR,,0.00,WeatherDisplay:10.37,2013-06-27 13:12:00,
2013-06-27 08:13:00,85.3,54.5,28.97,West,270,6.9,6.9,35,0.00,CLR,,0.00,WeatherDisplay:10.37,2013-06-27 13:13:00,
2013-06-27 08:14:00,85.5,55.5,28.97,WNW,292,5.8,5.8,36,0.00,CLR,,0.00,WeatherDisplay:10.37,2013-06-27 13:14:00,
2013-06-27 08:15:00,85.5,55.5,28.97,WNW,289,5.0,0.0,36,0.00,CLR,,0.00,WeatherDisplay:10.37,2013-06-27 13:15:00,
2013-06-27 08:16:00,85.5,55.5,28.97,NNW,338,8.1,8.1,36,0.00,CLR,,0.00,WeatherDisplay:10.37,2013-06-27 13:16:00,
2013-06-27 08:18:00,85.5,55.5,28.97,NNW,338,8.1,8.1,36,0.00,CLR,,0.00,WeatherDisplay:10.37,2013-06-27 13:18:00,
2013-06-27 08:20:00,85.5,56.2,28.97,SW,225,5.8,5.8,37,0.00,CLR,,0.00,WeatherDisplay:10.37,2013-06-27 13:20:00,
2013-06-27 08:21:00,85.6,56.4,28.97,WNW,292,5.8,5.8,37,0.00,CLR,,0.00,WeatherDisplay:10.37,2013-06-27 13:21:00,
2013-06-27 08:23:00,85.5,55.5,28.97,West,270,9.2,9.2,36,0.00,CLR,,0.00,WeatherDisplay:10.37,2013-06-27 13:23:00,
2013-06-27 08:24:00,85.6,57.1,28.97,WNW,292,9.2,9.2,38,0.00,CLR,,0.00,WeatherDisplay:10.37,2013-06-27 13:24:00,
2013-06-27 08:26:00,85.6,57.1,28.97,WNW,292,8.1,8.1,38,0.00,CLR,,0.00,WeatherDisplay:10.37,2013-06-27 13:26:00,
2013-06-27 08:28:00,85.6,56.4,28.97,NW,315,8.1,8.1,37,0.00,CLR,,0.00,WeatherDisplay:10.37,2013-06-27 13:28:00,
2013-06-27 08:29:00,85.8,57.3,28.97,NW,315,3.6,3.6,38,0.00,CLR,,0.00,WeatherDisplay:10.37,2013-06-27 13:29:00,
2013-06-27 08:30:00,86.0,57.4,28.97,WNW,292,4.9,4.9,38,0.00,CLR,,0.00,WeatherDisplay:10.37,2013-06-27 13:30:00,
2013-06-27 08:31:00,85.8,56.5,28.97,West,270,8.5,8.5,37,0.00,CLR,,0.00,WeatherDisplay:10.37,2013-06-27 13:31:00,
2013-06-27 08:32:00,85.8,56.5,28.97,WNW,292,9.2,9.2,37,0.00,CLR,,0.00,WeatherDisplay:10.37,2013-06-27 13:32:00,
2013-06-27 08:36:00,85.5,57.0,28.97,West,270,5.8,5.8,38,0.00,CLR,,0.00,WeatherDisplay:10.37,2013-06-27 13:36:00,
2013-06-27 08:37:00,85.6,57.1,28.97,NW,315,5.8,5.8,38,0.00,CLR,,0.00,WeatherDisplay:10.37,2013-06-27 13:37:00,
2013-06-27 08:38:00,85.8,58.0,28.97,West,270,5.8,5.8,39,0.00,CLR,,0.00,WeatherDisplay:10.37,2013-06-27 13:38:00,
2013-06-27 08:39:00,85.8,57.3,28.97,West,270,10.5,10.5,38,0.00,CLR,,0.00,WeatherDisplay:10.37,2013-06-27 13:39:00,
2013-06-27 08:42:00,86.0,57.4,28.97,WNW,292,4.6,4.6,38,0.00,CLR,,0.00,WeatherDisplay:10.37,2013-06-27 13:42:00,
2013-06-27 08:44:00,85.8,57.3,28.97,WNW,292,6.4,6.4,38,0.00,CLR,,0.00,WeatherDisplay:10.37,2013-06-27 13:44:00,
2013-06-27 08:46:00,85.8,55.8,28.97,WNW,292,9.2,9.2,36,0.00,CLR,,0.00,WeatherDisplay:10.37,2013-06-27 13:46:00,
2013-06-27 08:48:00,85.3,55.3,28.97,WNW,292,9.2,9.2,36,0.00,CLR,,0.00,WeatherDisplay:10.37,2013-06-27 13:48:00,
2013-06-27 08:49:00,85.6,57.1,28.97,WNW,292,10.4,10.4,38,0.00,CLR,,0.00,WeatherDisplay:10.37,2013-06-27 13:49:00,
2013-06-27 08:51:00,85.3,56.1,28.97,WNW,292,10.4,10.4,37,0.00,CLR,,0.00,WeatherDisplay:10.37,2013-06-27 13:51:00,
2013-06-27 08:53:00,85.6,57.1,28.97,West,270,6.0,6.7,38,0.00,CLR,,0.00,WeatherDisplay:10.37,2013-06-27 13:53:00,
2013-06-27 08:55:00,86.0,57.4,28.97,WNW,292,5.8,5.8,38,0.00,CLR,,0.00,WeatherDisplay:10.37,2013-06-27 13:55:00,
2013-06-27 08:56:00,86.0,58.2,28.97,West,270,5.8,5.8,39,0.00,CLR,,0.00,WeatherDisplay:10.37,2013-06-27 13:56:00,
2013-06-27 08:57:00,86.0,57.4,28.97,West,270,5.8,5.8,38,0.00,CLR,,0.00,WeatherDisplay:10.37,2013-06-27 13:57:00,
2013-06-27 08:58:00,85.6,56.4,28.97,West,270,8.1,8.1,37,0.00,CLR,,0.00,WeatherDisplay:10.37,2013-06-27 13:58:00,
2013-06-27 09:01:00,86.2,57.6,28.97,WSW,248,6.9,6.9,38,0.00,CLR,,0.00,WeatherDisplay:10.37,2013-06-27 14:01:00,
2013-06-27 09:03:00,86.4,57.8,28.97,WNW,292,6.9,6.9,38,0.00,CLR,,0.00,WeatherDisplay:10.37,2013-06-27 14:03:00,
2013-06-27 09:04:00,86.4,57.8,28.97,WNW,292,6.9,6.9,38,0.00,CLR,,0.00,WeatherDisplay:10.37,2013-06-27 14:04:00,
2013-06-27 09:06:00,86.5,57.9,28.97,NW,315,6.9,6.9,38,0.00,CLR,,0.00,WeatherDisplay:10.37,2013-06-27 14:06:00,
2013-06-27 09:07:00,86.5,57.9,28.97,NW,315,4.6,4.6,38,0.00,CLR,,0.00,WeatherDisplay:10.37,2013-06-27 14:07:00,
2013-06-27 09:08:00,86.5,57.9,28.97,West,270,6.9,6.9,38,0.00,CLR,,0.00,WeatherDisplay:10.37,2013-06-27 14:08:00,
2013-06-27 09:10:00,86.5,57.2,28.97,WNW,297,5.0,0.0,37,0.00,CLR,,0.00,WeatherDisplay:10.37,2013-06-27 14:10:00,
2013-06-27 09:12:00,86.5,57.2,28.97,WNW,292,6.9,6.9,37,0.00,CLR,,0.00,WeatherDisplay:10.37,2013-06-27 14:12:00,
2013-06-27 09:13:00,86.9,58.2,28.97,West,270,4.6,4.6,38,0.00,CLR,,0.00,WeatherDisplay:10.37,2013-06-27 14:13:00,
2013-06-27 09:15:00,87.1,58.4,28.97,WNW,292,6.9,6.9,38,0.00,CLR,,0.00,WeatherDisplay:10.37,2013-06-27 14:15:00,
2013-06-27 09:16:00,86.9,58.2,28.97,West,270,8.1,8.1,38,0.00,CLR,,0.00,WeatherDisplay:10.37,2013-06-27 14:16:00,
2013-06-27 09:17:00,86.7,56.6,28.97,West,270,6.9,6.9,36,0.00,CLR,,0.00,WeatherDisplay:10.37,2013-06-27 14:17:00,
2013-06-27 09:18:00,86.9,58.2,28.97,WNW,292,5.8,5.8,38,0.00,CLR,,0.00,WeatherDisplay:10.37,2013-06-27 14:18:00,
2013-06-27 09:19:00,86.9,58.2,28.97,NE,45,2.3,2.3,38,0.00,CLR,,0.00,WeatherDisplay:10.37,2013-06-27 14:19:00,
2013-06-27 09:20:00,86.9,57.5,28.97,WSW,248,3.5,3.5,37,0.00,CLR,,0.00,WeatherDisplay:10.37,2013-06-27 14:20:00,
2013-06-27 09:22:00,87.1,57.7,28.97,NW,315,3.5,3.5,37,0.00,CLR,,0.00,WeatherDisplay:10.37,2013-06-27 14:22:00,
2013-06-27 09:23:00,87.1,58.4,28.97,NW,315,8.1,8.1,38,0.00,CLR,,0.00,WeatherDisplay:10.37,2013-06-27 14:23:00,
2013-06-27 09:26:00,87.3,58.6,28.97,West,270,4.6,4.6,38,0.00,CLR,,0.00,WeatherDisplay:10.37,2013-06-27 14:26:00,
2013-06-27 09:28:00,87.3,56.3,28.97,West,270,8.1,8.1,35,0.00,CLR,,0.00,WeatherDisplay:10.37,2013-06-27 14:28:00,
2013-06-27 09:29:00,87.1,56.9,28.97,West,270,8.1,8.1,36,0.00,CLR,,0.00,WeatherDisplay:10.37,2013-06-27 14:29:00,
2013-06-27 09:30:00,87.3,57.8,28.97,NW,315,4.6,4.6,37,0.00,CLR,,0.00,WeatherDisplay:10.37,2013-06-27 14:30:00,
2013-06-27 09:34:00,87.6,58.9,28.97,West,270,2.3,2.3,38,0.00,CLR,,0.00,WeatherDisplay:10.37,2013-06-27 14:34:00,
2013-06-27 09:35:00,87.6,58.9,28.97,West,270,3.5,3.5,38,0.00,CLR,,0.00,WeatherDisplay:10.37,2013-06-27 14:35:00,
2013-06-27 09:36:00,87.4,58.0,28.97,WSW,248,6.9,6.9,37,0.00,CLR,,0.00,WeatherDisplay:10.37,2013-06-27 14:36:00,
2013-06-27 09:40:00,87.8,59.0,28.97,WNW,287,6.0,0.0,38,0.00,CLR,,0.00,WeatherDisplay:10.37,2013-06-27 14:40:00,
2013-06-27 09:41:00,87.6,57.4,28.97,West,270,5.8,5.8,36,0.00,CLR,,0.00,WeatherDisplay:10.37,2013-06-27 14:41:00,
2013-06-27 09:42:00,87.6,58.1,28.97,NW,315,9.8,9.8,37,0.00,CLR,,0.00,WeatherDisplay:10.37,2013-06-27 14:42:00,
2013-06-27 09:45:00,87.6,57.4,28.97,WNW,289,2.0,0.0,36,0.00,CLR,,0.00,WeatherDisplay:10.37,2013-06-27 14:45:00,
2013-06-27 09:47:00,87.6,57.4,28.94,WNW,292,6.9,6.9,36,0.00,CLR,,0.00,WeatherDisplay:10.37,2013-06-27 14:47:00,
2013-06-27 09:49:00,87.8,56.7,28.94,NNW,338,6.9,6.9,35,0.00,CLR,,0.00,WeatherDisplay:10.37,2013-06-27 14:49:00,
2013-06-27 09:51:00,87.8,56.7,28.94,WNW,292,3.5,3.5,35,0.00,CLR,,0.00,WeatherDisplay:10.37,2013-06-27 14:51:00,
2013-06-27 09:52:00,87.6,57.4,28.94,NNW,338,2.3,2.3,36,0.00,CLR,,0.00,WeatherDisplay:10.37,2013-06-27 14:52:00,
2013-06-27 09:53:00,87.8,57.5,28.94,NW,315,4.6,4.6,36,0.00,CLR,,0.00,WeatherDisplay:10.37,2013-06-27 14:53:00,
2013-06-27 09:54:00,87.8,57.5,28.94,WNW,292,6.2,6.2,36,0.00,CLR,,0.00,WeatherDisplay:10.37,2013-06-27 14:54:00,
2013-06-27 09:57:00,87.8,56.7,28.94,NW,315,8.1,8.1,35,0.00,CLR,,0.00,WeatherDisplay:10.37,2013-06-27 14:57:00,
2013-06-27 09:58:00,87.8,55.9,28.94,West,270,6.9,6.9,34,0.00,CLR,,0.00,WeatherDisplay:10.37,2013-06-27 14:58:00,
2013-06-27 09:59:00,88.0,57.7,28.94,West,270,6.9,6.9,36,0.00,CLR,,0.00,WeatherDisplay:10.37,2013-06-27 14:59:00,
2013-06-27 10:04:00,88.2,57.1,28.97,NNW,338,6.0,6.0,35,0.00,CLR,,0.00,WeatherDisplay:10.37,2013-06-27 15:04:00,
2013-06-27 10:06:00,88.2,55.4,28.97,WNW,292,5.9,5.9,33,0.00,CLR,,0.00,WeatherDisplay:10.37,2013-06-27 15:06:00,
2013-06-27 10:07:00,88.2,55.4,28.97,WNW,292,9.2,9.2,33,0.00,CLR,,0.00,WeatherDisplay:10.37,2013-06-27 15:07:00,
2013-06-27 10:10:00,88.2,56.3,28.97,West,270,6.9,6.9,34,0.00,CLR,,0.00,WeatherDisplay:10.37,2013-06-27 15:10:00,
2013-06-27 10:12:00,88.2,55.4,28.97,West,270,6.9,6.9,33,0.00,CLR,,0.00,WeatherDisplay:10.37,2013-06-27 15:12:00,
2013-06-27 10:14:00,88.3,55.6,28.97,WNW,292,8.1,8.1,33,0.00,CLR,,0.00,WeatherDisplay:10.37,2013-06-27 15:14:00,
2013-06-27 10:16:00,88.5,56.6,28.97,NW,315,8.1,8.1,34,0.00,CLR,,0.00,WeatherDisplay:10.37,2013-06-27 15:16:00,
2013-06-27 10:17:00,88.5,56.6,28.97,West,270,8.1,8.1,34,0.00,CLR,,0.00,WeatherDisplay:10.37,2013-06-27 15:17:00,
2013-06-27 10:19:00,88.5,57.4,28.97,West,270,8.1,8.1,35,0.00,CLR,,0.00,WeatherDisplay:10.37,2013-06-27 15:19:00,
2013-06-27 10:20:00,88.7,56.7,28.97,WNW,287,6.0,0.0,34,0.00,CLR,,0.00,WeatherDisplay:10.37,2013-06-27 15:20:00,
2013-06-27 10:22:00,88.7,55.9,28.97,NW,315,6.9,6.9,33,0.00,CLR,,0.00,WeatherDisplay:10.37,2013-06-27 15:22:00,
2013-06-27 10:23:00,88.9,56.9,28.97,WNW,292,5.8,5.8,34,0.00,CLR,,0.00,WeatherDisplay:10.37,2013-06-27 15:23:00,
2013-06-27 10:25:00,88.9,56.1,28.97,WNW,292,11.5,11.5,33,0.00,CLR,,0.00,WeatherDisplay:10.37,2013-06-27 15:25:00,
2013-06-27 10:27:00,88.7,54.2,28.97,West,270,8.1,8.1,31,0.00,CLR,,0.00,WeatherDisplay:10.37,2013-06-27 15:27:00,
2013-06-27 10:29:00,89.1,56.2,28.97,West,270,8.1,8.1,33,0.00,CLR,,0.00,WeatherDisplay:10.37,2013-06-27 15:29:00,
2013-06-27 10:30:00,88.9,54.3,28.97,West,270,8.1,8.1,31,0.00,CLR,,0.00,WeatherDisplay:10.37,2013-06-27 15:30:00,
2013-06-27 10:31:00,88.9,54.3,28.97,WNW,292,6.0,6.0,31,0.00,CLR,,0.00,WeatherDisplay:10.37,2013-06-27 15:31:00,
2013-06-27 10:33:00,89.2,55.5,28.97,West,270,6.2,6.2,32,0.00,CLR,,0.00,WeatherDisplay:10.37,2013-06-27 15:33:00,
2013-06-27 10:34:00,89.2,55.5,28.97,WNW,292,5.8,5.8,32,0.00,CLR,,0.00,WeatherDisplay:10.37,2013-06-27 15:34:00,
2013-06-27 10:36:00,89.2,54.6,28.97,NW,315,6.9,6.9,31,0.00,CLR,,0.00,WeatherDisplay:10.37,2013-06-27 15:36:00,
2013-06-27 10:38:00,89.4,55.7,28.97,WNW,292,8.1,8.1,32,0.00,CLR,,0.00,WeatherDisplay:10.37,2013-06-27 15:38:00,
2013-06-27 10:39:00,89.4,53.9,28.97,WNW,292,8.1,8.1,30,0.00,CLR,,0.00,WeatherDisplay:10.37,2013-06-27 15:39:00,
2013-06-27 10:40:00,89.4,53.9,28.97,WNW,287,5.0,0.0,30,0.00,CLR,,0.00,WeatherDisplay:10.37,2013-06-27 15:40:00,
2013-06-27 10:41:00,89.6,54.1,28.97,NW,315,8.1,8.1,30,0.00,CLR,,0.00,WeatherDisplay:10.37,2013-06-27 15:41:00,
2013-06-27 10:44:00,89.2,52.8,28.97,West,270,9.2,9.2,29,0.00,CLR,,0.00,WeatherDisplay:10.37,2013-06-27 15:44:00,
2013-06-27 10:45:00,89.2,52.8,28.97,WNW,293,7.0,0.0,29,0.00,CLR,,0.00,WeatherDisplay:10.37,2013-06-27 15:45:00,
2013-06-27 10:46:00,89.2,53.7,28.97,WNW,292,10.4,10.4,30,0.00,CLR,,0.00,WeatherDisplay:10.37,2013-06-27 15:46:00,
2013-06-27 10:48:00,89.4,53.0,28.97,WNW,292,6.9,6.9,29,0.00,CLR,,0.00,WeatherDisplay:10.37,2013-06-27 15:48:00,
2013-06-27 10:50:00,89.6,54.1,28.97,West,270,7.6,7.6,30,0.00,CLR,,0.00,WeatherDisplay:10.37,2013-06-27 15:50:00,
2013-06-27 10:51:00,89.6,53.1,28.97,WNW,292,8.1,8.1,29,0.00,CLR,,0.00,WeatherDisplay:10.37,2013-06-27 15:51:00,
2013-06-27 10:52:00,89.8,54.2,28.97,SSW,202,8.1,8.1,30,0.00,CLR,,0.00,WeatherDisplay:10.37,2013-06-27 15:52:00,
2013-06-27 10:53:00,89.8,53.3,28.97,West,270,4.6,4.6,29,0.00,CLR,,0.00,WeatherDisplay:10.37,2013-06-27 15:53:00,
2013-06-27 10:54:00,90.0,54.4,28.97,West,270,6.9,6.9,30,0.00,CLR,,0.00,WeatherDisplay:10.37,2013-06-27 15:54:00,
2013-06-27 10:55:00,90.0,53.4,28.97,WNW,292,6.9,6.9,29,0.00,CLR,,0.00,WeatherDisplay:10.37,2013-06-27 15:55:00,
2013-06-27 10:56:00,89.8,53.3,28.97,WNW,292,6.9,6.9,29,0.00,CLR,,0.00,WeatherDisplay:10.37,2013-06-27 15:56:00,
2013-06-27 10:58:00,90.0,53.4,28.97,WNW,292,6.9,6.9,29,0.00,CLR,,0.00,WeatherDisplay:10.37,2013-06-27 15:58:00,
2013-06-27 10:59:00,90.0,53.4,28.97,NNW,338,6.9,6.9,29,0.00,CLR,,0.00,WeatherDisplay:10.37,2013-06-27 15:59:00,
2013-06-27 11:00:00,89.4,53.0,28.97,WNW,292,12.7,12.7,29,0.00,CLR,,0.00,WeatherDisplay:10.37,2013-06-27 16:00:00,
2013-06-27 11:01:00,89.6,52.2,28.97,West,270,12.7,12.7,28,0.00,CLR,,0.00,WeatherDisplay:10.37,2013-06-27 16:01:00,
2013-06-27 11:04:00,89.8,54.2,28.94,SW,225,6.9,6.9,30,0.00,CLR,,0.00,WeatherDisplay:10.37,2013-06-27 16:04:00,
2013-06-27 11:05:00,89.8,53.3,28.94,West,270,4.6,4.6,29,0.00,CLR,,0.00,WeatherDisplay:10.37,2013-06-27 16:05:00,
2013-06-27 11:06:00,89.8,53.3,28.94,NW,315,10.4,10.4,29,0.00,CLR,,0.00,WeatherDisplay:10.37,2013-06-27 16:06:00,
2013-06-27 11:08:00,89.8,53.3,28.94,WNW,292,8.1,8.1,29,0.00,CLR,,0.00,WeatherDisplay:10.37,2013-06-27 16:08:00,
2013-06-27 11:09:00,89.6,52.2,28.94,WNW,292,10.4,10.4,28,0.00,CLR,,0.00,WeatherDisplay:10.37,2013-06-27 16:09:00,
2013-06-27 11:10:00,89.6,52.2,28.94,North,0,9.2,9.2,28,0.00,CLR,,0.00,WeatherDisplay:10.37,2013-06-27 16:10:00,
2013-06-27 11:11:00,89.6,52.2,28.94,WNW,292,10.4,10.4,28,0.00,CLR,,0.00,WeatherDisplay:10.37,2013-06-27 16:11:00,
2013-06-27 11:13:00,89.8,53.3,28.94,NW,315,8.1,8.1,29,0.00,CLR,,0.00,WeatherDisplay:10.37,2013-06-27 16:13:00,
2013-06-27 11:14:00,89.8,53.3,28.94,West,270,6.9,6.9,29,0.00,CLR,,0.00,WeatherDisplay:10.37,2013-06-27 16:14:00,
2013-06-27 11:15:00,89.6,52.2,28.94,West,270,10.4,10.4,28,0.00,CLR,,0.00,WeatherDisplay:10.37,2013-06-27 16:15:00,
2013-06-27 11:17:00,89.8,52.3,28.97,West,270,10.4,10.4,28,0.00,CLR,,0.00,WeatherDisplay:10.37,2013-06-27 16:17:00,
2013-06-27 11:18:00,89.8,52.3,28.97,WNW,292,8.1,8.1,28,0.00,CLR,,0.00,WeatherDisplay:10.37,2013-06-27 16:18:00,
2013-06-27 11:20:00,89.6,52.2,28.97,WNW,292,9.2,9.2,28,0.00,CLR,,0.00,WeatherDisplay:10.37,2013-06-27 16:20:00,
2013-06-27 11:21:00,90.0,53.4,28.97,NW,315,6.9,6.9,29,0.00,CLR,,0.00,WeatherDisplay:10.37,2013-06-27 16:21:00,
2013-06-27 11:23:00,90.1,53.6,28.97,NW,315,6.9,6.9,29,0.00,CLR,,0.00,WeatherDisplay:10.37,2013-06-27 16:23:00,
2013-06-27 11:24:00,90.1,52.6,28.97,West,270,6.9,6.9,28,0.00,CLR,,0.00,WeatherDisplay:10.37,2013-06-27 16:24:00,
2013-06-27 11:25:00,90.1,52.6,28.97,SW,225,5.8,5.8,28,0.00,CLR,,0.00,WeatherDisplay:10.37,2013-06-27 16:25:00,
2013-06-27 11:26:00,90.1,52.6,28.97,NW,315,5.8,5.8,28,0.00,CLR,,0.00,WeatherDisplay:10.37,2013-06-27 16:26:00,
2013-06-27 11:29:00,90.5,53.9,28.97,West,270,6.9,6.9,29,0.00,CLR,,0.00,WeatherDisplay:10.37,2013-06-27 16:29:00,
2013-06-27 11:31:00,90.5,52.9,28.97,WNW,292,6.9,6.9,28,0.00,CLR,,0.00,WeatherDisplay:10.37,2013-06-27 16:31:00,
2013-06-27 11:34:00,90.5,52.9,29.00,NW,315,8.1,8.1,28,0.00,CLR,,0.00,WeatherDisplay:10.37,2013-06-27 16:34:00,
2013-06-27 11:35:00,90.5,52.9,29.00,WSW,248,8.1,8.1,28,0.00,CLR,,0.00,WeatherDisplay:10.37,2013-06-27 16:35:00,
2013-06-27 11:37:00,90.3,52.8,29.00,West,270,8.1,8.1,28,0.00,CLR,,0.00,WeatherDisplay:10.37,2013-06-27 16:37:00,
2013-06-27 11:39:00,90.5,52.9,29.00,South,180,6.0,6.0,28,0.00,CLR,,0.00,WeatherDisplay:10.37,2013-06-27 16:39:00,
2013-06-27 11:40:00,90.5,52.9,29.00,West,278,5.0,0.0,28,0.00,CLR,,0.00,WeatherDisplay:10.37,2013-06-27 16:40:00,
2013-06-27 11:41:00,90.5,52.9,29.00,NW,315,8.5,8.5,28,0.00,CLR,,0.00,WeatherDisplay:10.37,2013-06-27 16:41:00,
2013-06-27 11:42:00,90.5,52.9,29.00,WNW,292,9.2,9.2,28,0.00,CLR,,0.00,WeatherDisplay:10.37,2013-06-27 16:42:00,
2013-06-27 11:45:00,90.4,52.9,29.00,West,274,7.0,0.0,28,0.00,CLR,,0.00,WeatherDisplay:10.37,2013-06-27 16:45:00,
2013-06-27 11:46:00,90.7,53.1,29.00,West,270,4.7,4.7,28,0.00,CLR,,0.00,WeatherDisplay:10.37,2013-06-27 16:46:00,
2013-06-27 11:47:00,90.7,53.1,28.97,WSW,248,4.6,4.6,28,0.00,CLR,,0.00,WeatherDisplay:10.37,2013-06-27 16:47:00,
2013-06-27 11:48:00,90.7,53.1,28.97,West,270,9.8,9.8,28,0.00,CLR,,0.00,WeatherDisplay:10.37,2013-06-27 16:48:00,
2013-06-27 11:49:00,90.7,53.1,28.97,SSW,202,9.2,9.2,28,0.00,CLR,,0.00,WeatherDisplay:10.37,2013-06-27 16:49:00,
2013-06-27 11:52:00,91.0,53.4,28.97,WSW,248,8.1,8.1,28,0.00,CLR,,0.00,WeatherDisplay:10.37,2013-06-27 16:52:00,
2013-06-27 11:53:00,90.9,51.2,28.97,West,270,5.9,6.0,26,0.00,CLR,,0.00,WeatherDisplay:10.37,2013-06-27 16:53:00,
2013-06-27 11:56:00,91.4,52.7,28.97,West,270,6.9,6.9,27,0.00,CLR,,0.00,WeatherDisplay:10.37,2013-06-27 16:56:00,
2013-06-27 11:57:00,91.6,50.8,28.97,WSW,248,9.2,9.2,25,0.00,CLR,,0.00,WeatherDisplay:10.37,2013-06-27 16:57:00,
2013-06-27 11:58:00,91.6,50.8,28.97,West,270,10.4,10.4,25,0.00,CLR,,0.00,WeatherDisplay:10.37,2013-06-27 16:58:00,
2013-06-27 12:00:00,91.8,49.9,28.97,West,275,7.0,0.0,24,0.00,CLR,,0.00,WeatherDisplay:10.37,2013-06-27 17:00:00,
2013-06-27 12:01:00,91.9,50.0,28.97,WSW,248,9.2,9.2,24,0.00,CLR,,0.00,WeatherDisplay:10.37,2013-06-27 17:01:00,
2013-06-27 12:03:00,92.1,53.3,28.97,WNW,292,9.4,9.4,27,0.00,CLR,,0.00,WeatherDisplay:10.37,2013-06-27 17:03:00,
2013-06-27 12:04:00,92.1,53.3,28.97,NW,315,9.2,9.2,27,0.00,CLR,,0.00,WeatherDisplay:10.37,2013-06-27 17:04:00,
2013-06-27 12:05:00,92.0,51.1,28.97,WNW,282,5.0,0.0,25,0.00,CLR,,0.00,WeatherDisplay:10.37,2013-06-27 17:05:00,
2013-06-27 12:06:00,91.9,50.0,28.97,NW,315,5.8,5.8,24,0.00,CLR,,0.00,WeatherDisplay:10.37,2013-06-27 17:06:00,
2013-06-27 12:08:00,91.9,48.8,28.97,WNW,292,5.8,5.8,23,0.00,CLR,,0.00,WeatherDisplay:10.37,2013-06-27 17:08:00,
2013-06-27 12:10:00,91.8,48.8,28.97,WNW,286,5.0,0.0,23,0.00,CLR,,0.00,WeatherDisplay:10.37,2013-06-27 17:10:00,
2013-06-27 12:11:00,91.9,51.1,28.97,WNW,292,9.2,9.2,25,0.00,CLR,,0.00,WeatherDisplay:10.37,2013-06-27 17:11:00,
2013-06-27 12:13:00,92.3,49.1,28.97,West,270,9.2,9.2,23,0.00,CLR,,0.00,WeatherDisplay:10.37,2013-06-27 17:13:00,
2013-06-27 12:14:00,92.5,49.3,28.97,SW,225,5.6,5.6,23,0.00,CLR,,0.00,WeatherDisplay:10.37,2013-06-27 17:14:00,
2013-06-27 12:15:00,92.4,49.2,28.97,WNW,284,5.0,0.0,23,0.00,CLR,,0.00,WeatherDisplay:10.37,2013-06-27 17:15:00,
2013-06-27 12:16:00,92.5,48.1,28.97,West,270,5.8,5.8,22,0.00,CLR,,0.00,WeatherDisplay:10.37,2013-06-27 17:16:00,
2013-06-27 12:20:00,92.1,49.0,28.97,West,270,4.6,4.6,23,0.00,CLR,,0.00,WeatherDisplay:10.37,2013-06-27 17:20:00,
2013-06-27 12:22:00,92.3,51.4,28.97,West,270,5.8,5.8,25,0.00,CLR,,0.00,WeatherDisplay:10.37,2013-06-27 17:22:00,
2013-06-27 12:23:00,92.5,50.4,28.97,West,270,5.8,5.8,24,0.00,CLR,,0.00,WeatherDisplay:10.37,2013-06-27 17:23:00,
2013-06-27 12:24:00,92.7,51.7,28.97,SW,225,10.2,10.2,25,0.00,CLR,,0.00,WeatherDisplay:10.37,2013-06-27 17:24:00,
2013-06-27 12:25:00,92.7,50.6,28.97,SW,225,10.4,10.4,24,0.00,CLR,,0.00,WeatherDisplay:10.37,2013-06-27 17:25:00,
2013-06-27 12:27:00,92.7,50.6,28.97,WNW,292,6.0,6.0,24,0.00,CLR,,0.00,WeatherDisplay:10.37,2013-06-27 17:27:00,
2013-06-27 12:30:00,92.7,49.4,28.97,West,273,5.0,0.0,23,0.00,CLR,,0.00,WeatherDisplay:10.37,2013-06-27 17:30:00,
2013-06-27 12:31:00,92.5,49.3,28.97,WNW,292,5.8,5.8,23,0.00,CLR,,0.00,WeatherDisplay:10.37,2013-06-27 17:31:00,
2013-06-27 12:32:00,92.1,49.0,28.97,WNW,292,10.4,10.4,23,0.00,CLR,,0.00,WeatherDisplay:10.37,2013-06-27 17:32:00,
2013-06-27 12:35:00,91.6,47.4,28.97,WNW,292,10.4,10.4,22,0.00,CLR,,0.00,WeatherDisplay:10.37,2013-06-27 17:35:00,
2013-06-27 12:36:00,91.8,48.7,28.97,West,270,10.4,10.4,23,0.00,CLR,,0.00,WeatherDisplay:10.37,2013-06-27 17:36:00,
2013-06-27 12:37:00,91.8,48.7,28.97,NW,315,9.2,9.2,23,0.00,CLR,,0.00,WeatherDisplay:10.37,2013-06-27 17:37:00,
2013-06-27 12:38:00,91.8,49.8,28.97,West,270,9.2,9.2,24,0.00,CLR,,0.00,WeatherDisplay:10.37,2013-06-27 17:38:00,
2013-06-27 12:42:00,91.9,51.1,28.97,West,270,8.1,8.1,25,0.00,CLR,,0.00,WeatherDisplay:10.37,2013-06-27 17:42:00,
2013-06-27 12:43:00,91.9,50.0,28.97,SW,225,6.9,6.9,24,0.00,CLR,,0.00,WeatherDisplay:10.37,2013-06-27 17:43:00,
2013-06-27 12:44:00,91.6,49.7,28.97,SW,225,10.4,10.4,24,0.00,CLR,,0.00,WeatherDisplay:10.37,2013-06-27 17:44:00,
2013-06-27 12:45:00,91.6,49.7,28.97,West,266,5.0,0.0,24,0.00,CLR,,0.00,WeatherDisplay:10.37,2013-06-27 17:45:00,
2013-06-27 12:48:00,91.9,51.1,28.97,WSW,248,8.1,8.1,25,0.00,CLR,,0.00,WeatherDisplay:10.37,2013-06-27 17:48:00,
2013-06-27 12:49:00,92.1,52.3,28.97,West,270,9.2,9.2,26,0.00,CLR,,0.00,WeatherDisplay:10.37,2013-06-27 17:49:00,
2013-06-27 12:50:00,92.1,52.3,28.97,West,270,5.0,0.0,26,0.00,CLR,,0.00,WeatherDisplay:10.37,2013-06-27 17:50:00,
2013-06-27 12:53:00,91.8,52.0,28.97,West,270,8.1,8.1,26,0.00,CLR,,0.00,WeatherDisplay:10.37,2013-06-27 17:53:00,
2013-06-27 12:54:00,91.4,50.6,28.97,WNW,292,8.1,8.1,25,0.00,CLR,,0.00,WeatherDisplay:10.37,2013-06-27 17:54:00,
2013-06-27 12:55:00,91.4,50.6,28.97,West,274,6.0,0.0,25,0.00,CLR,,0.00,WeatherDisplay:10.37,2013-06-27 17:55:00,
2013-06-27 12:59:00,91.6,48.5,28.97,WSW,248,9.2,9.2,23,0.00,CLR,,0.00,WeatherDisplay:10.37,2013-06-27 17:59:00,
2013-06-27 13:00:00,91.8,49.8,28.97,West,270,9.2,9.2,24,0.00,CLR,,0.00,WeatherDisplay:10.37,2013-06-27 18:00:00,
2013-06-27 13:02:00,92.1,52.3,28.97,WSW,248,6.0,6.0,26,0.00,CLR,,0.00,WeatherDisplay:10.37,2013-06-27 18:02:00,
2013-06-27 13:03:00,92.3,53.5,28.97,West,270,8.1,8.1,27,0.00,CLR,,0.00,WeatherDisplay:10.37,2013-06-27 18:03:00,
2013-06-27 13:05:00,92.3,50.3,28.97,West,270,8.1,8.1,24,0.00,CLR,,0.00,WeatherDisplay:10.37,2013-06-27 18:05:00,
2013-06-27 13:07:00,92.1,49.0,28.97,West,270,5.8,5.8,23,0.00,CLR,,0.00,WeatherDisplay:10.37,2013-06-27 18:07:00,
2013-06-27 13:09:00,91.9,48.8,28.97,West,270,8.1,8.1,23,0.00,CLR,,0.00,WeatherDisplay:10.37,2013-06-27 18:09:00,
2013-06-27 13:10:00,91.9,50.0,28.97,North,0,4.6,4.6,24,0.00,CLR,,0.00,WeatherDisplay:10.37,2013-06-27 18:10:00,
2013-06-27 13:12:00,91.6,49.7,28.97,WNW,292,6.9,6.9,24,0.00,CLR,,0.00,WeatherDisplay:10.37,2013-06-27 18:12:00,
2013-06-27 13:15:00,91.4,49.5,28.97,West,270,9.4,9.4,24,0.00,CLR,,0.00,WeatherDisplay:10.37,2013-06-27 18:15:00,
2013-06-27 13:16:00,91.2,49.4,28.97,WSW,248,9.2,9.2,24,0.00,CLR,,0.00,WeatherDisplay:10.37,2013-06-27 18:16:00,
2013-06-27 13:17:00,91.2,49.4,28.97,West,270,5.8,5.8,24,0.00,CLR,,0.00,WeatherDisplay:10.37,2013-06-27 18:17:00,
2013-06-27 13:20:00,90.9,49.1,28.97,SW,225,5.8,5.8,24,0.00,CLR,,0.00,WeatherDisplay:10.37,2013-06-27 18:20:00,
2013-06-27 13:22:00,90.9,50.2,28.97,SW,225,4.7,4.7,25,0.00,CLR,,0.00,WeatherDisplay:10.37,2013-06-27 18:22:00,
2013-06-27 13:23:00,90.9,51.2,28.97,WNW,292,4.6,4.6,26,0.00,CLR,,0.00,WeatherDisplay:10.37,2013-06-27 18:23:00,
2013-06-27 13:25:00,91.2,50.5,28.97,West,270,3.5,0.0,25,0.00,CLR,,0.00,WeatherDisplay:10.37,2013-06-27 18:25:00,
2013-06-27 13:28:00,91.4,50.6,28.97,WNW,292,4.6,4.6,25,0.00,CLR,,0.00,WeatherDisplay:10.37,2013-06-27 18:28:00,
2013-06-27 13:29:00,91.2,50.5,28.97,WNW,292,5.8,5.8,25,0.00,CLR,,0.00,WeatherDisplay:10.37,2013-06-27 18:29:00,
2013-06-27 13:30:00,91.2,49.4,28.97,West,270,5.8,5.8,24,0.00,CLR,,0.00,WeatherDisplay:10.37,2013-06-27 18:30:00,
2013-06-27 13:32:00,91.2,48.2,28.97,WNW,292,5.8,5.8,23,0.00,CLR,,0.00,WeatherDisplay:10.37,2013-06-27 18:32:00,
2013-06-27 13:34:00,91.0,49.2,28.97,NW,315,5.8,5.8,24,0.00,CLR,,0.00,WeatherDisplay:10.37,2013-06-27 18:34:00,
2013-06-27 13:35:00,91.0,48.1,28.97,NNW,338,6.9,6.9,23,0.00,CLR,,0.00,WeatherDisplay:10.37,2013-06-27 18:35:00,
2013-06-27 13:36:00,91.0,49.2,28.97,West,270,6.9,6.9,24,0.00,CLR,,0.00,WeatherDisplay:10.37,2013-06-27 18:36:00,
2013-06-27 13:37:00,90.9,47.9,28.97,West,270,5.8,5.8,23,0.00,CLR,,0.00,WeatherDisplay:10.37,2013-06-27 18:37:00,
2013-06-27 13:39:00,91.0,49.2,28.97,West,270,3.5,3.5,24,0.00,CLR,,0.00,WeatherDisplay:10.37,2013-06-27 18:39:00,
2013-06-27 13:40:00,91.0,50.3,28.97,SW,225,3.5,3.5,25,0.00,CLR,,0.00,WeatherDisplay:10.37,2013-06-27 18:40:00,
2013-06-27 13:42:00,91.0,50.3,28.97,West,270,4.6,4.6,25,0.00,CLR,,0.00,WeatherDisplay:10.37,2013-06-27 18:42:00,
2013-06-27 13:44:00,91.0,49.2,28.97,NW,315,4.9,4.9,24,0.00,CLR,,0.00,WeatherDisplay:10.37,2013-06-27 18:44:00,
2013-06-27 13:45:00,91.0,49.2,28.97,West,275,2.0,0.0,24,0.00,CLR,,0.00,WeatherDisplay:10.37,2013-06-27 18:45:00,
2013-06-27 13:49:00,91.0,49.2,28.97,West,270,3.5,3.5,24,0.00,CLR,,0.00,WeatherDisplay:10.37,2013-06-27 18:49:00,
2013-06-27 13:50:00,91.0,49.2,28.97,WNW,292,5.8,5.8,24,0.00,CLR,,0.00,WeatherDisplay:10.37,2013-06-27 18:50:00,
2013-06-27 13:51:00,91.0,49.2,28.97,ESE,112,6.9,6.9,24,0.00,CLR,,0.00,WeatherDisplay:10.37,2013-06-27 18:51:00,
2013-06-27 13:55:00,91.0,49.2,28.97,SW,225,6.9,6.9,24,0.00,CLR,,0.00,WeatherDisplay:10.37,2013-06-27 18:55:00,
2013-06-27 13:56:00,91.0,51.4,28.97,SSE,158,5.8,5.8,26,0.00,CLR,,0.00,WeatherDisplay:10.37,2013-06-27 18:56:00,
2013-06-27 13:58:00,91.0,50.3,28.97,West,270,6.9,6.9,25,0.00,CLR,,0.00,WeatherDisplay:10.37,2013-06-27 18:58:00,
2013-06-27 13:59:00,91.2,50.5,28.97,WNW,292,6.9,6.9,25,0.00,CLR,,0.00,WeatherDisplay:10.37,2013-06-27 18:59:00,
2013-06-27 14:00:00,91.2,50.5,28.97,West,270,5.8,5.8,25,0.00,CLR,,0.00,WeatherDisplay:10.37,2013-06-27 19:00:00,
2013-06-27 14:02:00,91.2,49.4,28.97,SW,225,8.1,8.1,24,0.00,CLR,,0.00,WeatherDisplay:10.37,2013-06-27 19:02:00,
2013-06-27 14:05:00,91.4,51.7,28.97,SW,225,10.4,10.4,26,0.00,CLR,,0.00,WeatherDisplay:10.37,2013-06-27 19:05:00,
2013-06-27 14:07:00,91.4,50.6,28.97,West,270,5.8,5.8,25,0.00,CLR,,0.00,WeatherDisplay:10.37,2013-06-27 19:07:00,
2013-06-27 14:08:00,91.4,51.7,28.97,NW,315,5.8,5.8,26,0.00,CLR,,0.00,WeatherDisplay:10.37,2013-06-27 19:08:00,
2013-06-27 14:10:00,91.6,51.8,28.97,West,270,8.1,8.1,26,0.00,CLR,,0.00,WeatherDisplay:10.37,2013-06-27 19:10:00,
2013-06-27 14:12:00,91.6,51.8,28.97,West,270,8.1,8.1,26,0.00,CLR,,0.00,WeatherDisplay:10.37,2013-06-27 19:12:00,
2013-06-27 14:13:00,91.6,51.8,28.97,West,270,4.6,4.6,26,0.00,CLR,,0.00,WeatherDisplay:10.37,2013-06-27 19:13:00,
2013-06-27 14:16:00,91.2,51.5,28.97,West,270,5.8,5.8,26,0.00,CLR,,0.00,WeatherDisplay:10.37,2013-06-27 19:16:00,
2013-06-27 14:17:00,91.2,52.6,28.97,WNW,292,5.8,5.8,27,0.00,CLR,,0.00,WeatherDisplay:10.37,2013-06-27 19:17:00,
2013-06-27 14:18:00,91.0,51.4,28.97,WSW,248,6.9,6.9,26,0.00,CLR,,0.00,WeatherDisplay:10.37,2013-06-27 19:18:00,
2013-06-27 14:19:00,91.0,52.4,28.97,West,270,6.9,6.9,27,0.00,CLR,,0.00,WeatherDisplay:10.37,2013-06-27 19:19:00,
2013-06-27 14:20:00,91.0,52.4,28.97,WSW,248,6.9,6.9,27,0.00,CLR,,0.00,WeatherDisplay:10.37,2013-06-27 19:20:00,
2013-06-27 14:22:00,91.2,52.6,28.97,WSW,248,6.9,6.9,27,0.00,CLR,,0.00,WeatherDisplay:10.37,2013-06-27 19:22:00,
2013-06-27 14:25:00,90.9,50.2,28.97,NW,315,5.8,5.8,25,0.00,CLR,,0.00,WeatherDisplay:10.37,2013-06-27 19:25:00,
2013-06-27 14:26:00,90.9,51.2,28.97,WSW,248,5.8,5.8,26,0.00,CLR,,0.00,WeatherDisplay:10.37,2013-06-27 19:26:00,
2013-06-27 14:28:00,90.7,52.1,28.97,West,270,10.4,10.4,27,0.00,CLR,,0.00,WeatherDisplay:10.37,2013-06-27 19:28:00,
2013-06-27 14:31:00,90.1,49.6,28.97,WNW,292,8.1,8.1,25,0.00,CLR,,0.00,WeatherDisplay:10.37,2013-06-27 19:31:00,
2013-06-27 14:32:00,90.0,50.5,28.97,West,270,8.1,8.1,26,0.00,CLR,,0.00,WeatherDisplay:10.37,2013-06-27 19:32:00,
2013-06-27 14:33:00,90.0,50.5,28.97,West,270,6.9,6.9,26,0.00,CLR,,0.00,WeatherDisplay:10.37,2013-06-27 19:33:00,
2013-06-27 14:35:00,90.0,50.5,28.97,West,266,3.0,0.0,26,0.00,CLR,,0.00,WeatherDisplay:10.37,2013-06-27 19:35:00,
2013-06-27 14:36:00,90.0,51.5,28.97,WSW,248,2.3,2.3,27,0.00,CLR,,0.00,WeatherDisplay:10.37,2013-06-27 19:36:00,
2013-06-27 14:40:00,90.0,51.5,28.97,West,259,5.0,0.0,27,0.00,CLR,,0.00,WeatherDisplay:10.37,2013-06-27 19:40:00,
2013-06-27 14:42:00,89.8,51.3,28.97,WSW,248,5.8,5.8,27,0.00,CLR,,0.00,WeatherDisplay:10.37,2013-06-27 19:42:00,
2013-06-27 14:44:00,90.0,52.5,28.97,SE,135,8.1,8.1,28,0.00,CLR,,0.00,WeatherDisplay:10.37,2013-06-27 19:44:00,
2013-06-27 14:45:00,90.0,51.5,28.97,WNW,292,2.3,2.3,27,0.00,CLR,,0.00,WeatherDisplay:10.37,2013-06-27 19:45:00,
2013-06-27 14:48:00,89.6,52.2,28.97,West,270,9.2,9.2,28,0.00,CLR,,0.00,WeatherDisplay:10.37,2013-06-27 19:48:00,
2013-06-27 14:50:00,89.6,52.2,28.97,NW,315,11.5,11.5,28,0.00,CLR,,0.00,WeatherDisplay:10.37,2013-06-27 19:50:00,
2013-06-27 14:53:00,89.6,52.2,28.97,West,270,11.5,11.5,28,0.00,CLR,,0.00,WeatherDisplay:10.37,2013-06-27 19:53:00,
2013-06-27 14:54:00,89.4,52.0,28.97,WSW,248,13.8,13.8,28,0.00,CLR,,0.00,WeatherDisplay:10.37,2013-06-27 19:54:00,
2013-06-27 14:56:00,89.2,51.9,28.97,West,270,8.1,8.1,28,0.00,CLR,,0.00,WeatherDisplay:10.37,2013-06-27 19:56:00,
2013-06-27 14:57:00,89.2,51.9,28.97,WSW,248,12.7,12.7,28,0.00,CLR,,0.00,WeatherDisplay:10.37,2013-06-27 19:57:00,
2013-06-27 14:58:00,88.9,48.5,28.97,WNW,292,12.7,12.7,25,0.00,CLR,,0.00,WeatherDisplay:10.37,2013-06-27 19:58:00,
2013-06-27 14:59:00,88.9,48.5,28.97,WNW,292,12.7,12.7,25,0.00,CLR,,0.00,WeatherDisplay:10.37,2013-06-27 19:59:00,
2013-06-27 15:01:00,88.9,50.6,28.97,WNW,292,11.5,11.5,27,0.00,CLR,,0.00,WeatherDisplay:10.37,2013-06-27 20:01:00,
2013-06-27 15:03:00,88.7,49.4,28.97,WSW,248,6.2,6.2,26,0.00,CLR,,0.00,WeatherDisplay:10.37,2013-06-27 20:03:00,
2013-06-27 15:04:00,88.7,49.4,28.97,North,0,12.7,12.7,26,0.00,CLR,,0.00,WeatherDisplay:10.37,2013-06-27 20:04:00,
2013-06-27 15:06:00,88.5,50.3,28.97,West,270,8.1,8.1,27,0.00,CLR,,0.00,WeatherDisplay:10.37,2013-06-27 20:06:00,
2013-06-27 15:07:00,88.2,50.9,28.97,WSW,248,13.0,13.0,28,0.00,CLR,,0.00,WeatherDisplay:10.37,2013-06-27 20:07:00,
2013-06-27 15:08:00,88.2,50.9,28.97,NNW,338,12.7,12.7,28,0.00,CLR,,0.00,WeatherDisplay:10.37,2013-06-27 20:08:00,
2013-06-27 15:09:00,88.3,51.1,28.97,WNW,292,6.9,6.9,28,0.00,CLR,,0.00,WeatherDisplay:10.37,2013-06-27 20:09:00,
2013-06-27 15:10:00,88.3,51.1,28.97,West,270,6.0,0.0,28,0.00,CLR,,0.00,WeatherDisplay:10.37,2013-06-27 20:10:00,
2013-06-27 15:12:00,88.0,50.8,28.97,West,270,8.1,8.1,28,0.00,CLR,,0.00,WeatherDisplay:10.37,2013-06-27 20:12:00,
2013-06-27 15:14:00,87.8,50.6,28.97,WNW,292,5.4,5.4,28,0.00,CLR,,0.00,WeatherDisplay:10.37,2013-06-27 20:14:00,
2013-06-27 15:17:00,87.8,50.6,28.97,NW,315,10.4,10.4,28,0.00,CLR,,0.00,WeatherDisplay:10.37,2013-06-27 20:17:00,
2013-06-27 15:18:00,87.8,50.6,28.97,WSW,248,8.1,8.1,28,0.00,CLR,,0.00,WeatherDisplay:10.37,2013-06-27 20:18:00,
2013-06-27 15:19:00,87.6,51.4,28.97,West,270,9.2,9.2,29,0.00,CLR,,0.00,WeatherDisplay:10.37,2013-06-27 20:19:00,
2013-06-27 15:20:00,87.6,51.4,28.97,West,271,7.0,0.0,29,0.00,CLR,,0.00,WeatherDisplay:10.37,2013-06-27 20:20:00,
2013-06-27 15:22:00,87.6,51.4,28.97,WNW,292,12.7,12.7,29,0.00,CLR,,0.00,WeatherDisplay:10.37,2013-06-27 20:22:00,
2013-06-27 15:23:00,87.6,51.4,28.97,WNW,292,12.7,12.7,29,0.00,CLR,,0.00,WeatherDisplay:10.37,2013-06-27 20:23:00,
2013-06-27 15:24:00,87.6,51.4,28.97,WNW,292,9.2,9.2,29,0.00,CLR,,0.00,WeatherDisplay:10.37,2013-06-27 20:24:00,
2013-06-27 15:25:00,87.6,51.4,28.97,West,277,6.0,0.0,29,0.00,CLR,,0.00,WeatherDisplay:10.37,2013-06-27 20:25:00,
2013-06-27 15:28:00,87.3,51.1,28.97,West,270,10.4,10.4,29,0.00,CLR,,0.00,WeatherDisplay:10.37,2013-06-27 20:28:00,
2013-06-27 15:32:00,87.1,51.0,28.97,West,270,8.1,8.1,29,0.00,CLR,,0.00,WeatherDisplay:10.37,2013-06-27 20:32:00,
2013-06-27 15:33:00,87.1,51.0,28.97,WSW,248,9.2,9.2,29,0.00,CLR,,0.00,WeatherDisplay:10.37,2013-06-27 20:33:00,
2013-06-27 15:34:00,87.1,51.0,28.97,WSW,248,9.2,9.2,29,0.00,CLR,,0.00,WeatherDisplay:10.37,2013-06-27 20:34:00,
2013-06-27 15:39:00,86.9,50.8,28.97,West,270,9.2,9.2,29,0.00,CLR,,0.00,WeatherDisplay:10.37,2013-06-27 20:39:00,
2013-06-27 15:41:00,87.1,51.0,28.97,WNW,292,7.1,7.1,29,0.00,CLR,,0.00,WeatherDisplay:10.37,2013-06-27 20:41:00,
2013-06-27 15:44:00,87.1,51.0,28.97,WNW,292,8.1,8.1,29,0.00,CLR,,0.00,WeatherDisplay:10.37,2013-06-27 20:44:00,
2013-06-27 15:47:00,86.7,50.7,28.97,West,270,11.5,11.5,29,0.00,CLR,,0.00,WeatherDisplay:10.37,2013-06-27 20:47:00,
2013-06-27 15:49:00,86.5,51.4,28.97,WNW,292,9.2,9.2,30,0.00,CLR,,0.00,WeatherDisplay:10.37,2013-06-27 20:49:00,
2013-06-27 15:52:00,86.5,51.4,28.97,NW,315,5.8,5.8,30,0.00,CLR,,0.00,WeatherDisplay:10.37,2013-06-27 20:52:00,
2013-06-27 15:54:00,86.5,51.4,28.97,WSW,248,13.8,13.8,30,0.00,CLR,,0.00,WeatherDisplay:10.37,2013-06-27 20:54:00,
2013-06-27 15:57:00,86.5,51.4,28.97,West,270,6.2,6.2,30,0.00,CLR,,0.00,WeatherDisplay:10.37,2013-06-27 20:57:00,
2013-06-27 15:58:00,86.5,51.4,28.97,WNW,292,7.4,7.4,30,0.00,CLR,,0.00,WeatherDisplay:10.37,2013-06-27 20:58:00,
2013-06-27 16:00:00,86.5,51.4,28.97,WNW,284,6.0,0.0,30,0.00,CLR,,0.00,WeatherDisplay:10.37,2013-06-27 21:00:00,
2013-06-27 16:03:00,86.7,51.6,28.97,WNW,292,5.8,5.8,30,0.00,CLR,,0.00,WeatherDisplay:10.37,2013-06-27 21:03:00,
2013-06-27 16:04:00,86.7,51.6,28.97,WSW,248,10.7,10.7,30,0.00,CLR,,0.00,WeatherDisplay:10.37,2013-06-27 21:04:00,
2013-06-27 16:08:00,86.9,51.7,28.97,WNW,292,6.9,6.9,30,0.00,CLR,,0.00,WeatherDisplay:10.37,2013-06-27 21:08:00,
2013-06-27 16:09:00,86.9,51.7,28.97,WNW,292,5.8,5.8,30,0.00,CLR,,0.00,WeatherDisplay:10.37,2013-06-27 21:09:00,
2013-06-27 16:10:00,86.9,51.7,28.97,West,279,3.0,0.0,30,0.00,CLR,,0.00,WeatherDisplay:10.37,2013-06-27 21:10:00,
2013-06-27 16:14:00,87.1,51.9,28.97,NNW,338,5.8,5.8,30,0.00,CLR,,0.00,WeatherDisplay:10.37,2013-06-27 21:14:00,
2013-06-27 16:15:00,87.1,51.9,28.97,WNW,284,5.0,0.0,30,0.00,CLR,,0.00,WeatherDisplay:10.37,2013-06-27 21:15:00,
2013-06-27 16:16:00,87.1,51.9,28.97,NW,315,5.8,6.2,30,0.00,CLR,,0.00,WeatherDisplay:10.37,2013-06-27 21:16:00,
2013-06-27 16:20:00,87.1,51.9,28.97,West,280,7.0,0.0,30,0.00,CLR,,0.00,WeatherDisplay:10.37,2013-06-27 21:20:00,
2013-06-27 16:21:00,86.9,50.8,28.97,West,270,11.5,11.5,29,0.00,CLR,,0.00,WeatherDisplay:10.37,2013-06-27 21:21:00,
2013-06-27 16:22:00,86.9,50.8,28.97,NW,315,9.2,9.2,29,0.00,CLR,,0.00,WeatherDisplay:10.37,2013-06-27 21:22:00,
2013-06-27 16:26:00,86.9,51.7,28.97,WNW,292,10.4,10.4,30,0.00,CLR,,0.00,WeatherDisplay:10.37,2013-06-27 21:26:00,
2013-06-27 16:28:00,87.1,51.0,28.97,SW,225,6.2,6.2,29,0.00,CLR,,0.00,WeatherDisplay:10.37,2013-06-27 21:28:00,
2013-06-27 16:33:00,86.9,51.7,28.94,SW,225,8.5,8.5,30,0.00,CLR,,0.00,WeatherDisplay:10.37,2013-06-27 21:33:00,
2013-06-27 16:34:00,87.1,51.9,28.94,WNW,292,9.7,9.7,30,0.00,CLR,,0.00,WeatherDisplay:10.37,2013-06-27 21:34:00,
2013-06-27 16:37:00,86.9,50.8,28.94,WNW,292,9.2,9.2,29,0.00,CLR,,0.00,WeatherDisplay:10.37,2013-06-27 21:37:00,
2013-06-27 16:39:00,87.1,51.0,28.94,WNW,292,10.4,10.4,29,0.00,CLR,,0.00,WeatherDisplay:10.37,2013-06-27 21:39:00,
2013-06-27 16:41:00,87.1,51.0,28.94,WSW,248,10.4,10.4,29,0.00,CLR,,0.00,WeatherDisplay:10.37,2013-06-27 21:41:00,
2013-06-27 16:42:00,87.1,51.0,28.94,NW,315,10.4,10.4,29,0.00,CLR,,0.00,WeatherDisplay:10.37,2013-06-27 21:42:00,
2013-06-27 16:43:00,87.1,51.0,28.94,NW,315,5.8,5.8,29,0.00,CLR,,0.00,WeatherDisplay:10.37,2013-06-27 21:43:00,
2013-06-27 16:48:00,87.1,51.9,28.91,WSW,248,5.8,5.8,30,0.00,CLR,,0.00,WeatherDisplay:10.37,2013-06-27 21:48:00,
2013-06-27 16:49:00,87.1,51.9,28.91,WSW,248,9.2,9.2,30,0.00,CLR,,0.00,WeatherDisplay:10.37,2013-06-27 21:49:00,
2013-06-27 16:50:00,87.1,51.9,28.91,WNW,282,6.0,0.0,30,0.00,CLR,,0.00,WeatherDisplay:10.37,2013-06-27 21:50:00,
2013-06-27 16:51:00,87.1,51.9,28.91,NNW,338,8.1,8.1,30,0.00,CLR,,0.00,WeatherDisplay:10.37,2013-06-27 21:51:00,
2013-06-27 16:53:00,87.1,51.9,28.91,West,270,6.2,6.2,30,0.00,CLR,,0.00,WeatherDisplay:10.37,2013-06-27 21:53:00,
2013-06-27 16:55:00,87.1,51.9,28.91,West,279,6.0,0.0,30,0.00,CLR,,0.00,WeatherDisplay:10.37,2013-06-27 21:55:00,
2013-06-27 16:56:00,86.5,51.4,28.91,WSW,248,9.7,9.7,30,0.00,CLR,,0.00,WeatherDisplay:10.37,2013-06-27 21:56:00,
2013-06-27 17:00:00,86.4,51.3,28.91,NW,315,10.4,10.4,30,0.00,CLR,,0.00,WeatherDisplay:10.37,2013-06-27 22:00:00,
2013-06-27 17:01:00,86.4,51.3,28.91,West,270,10.4,10.4,30,0.00,CLR,,0.00,WeatherDisplay:10.37,2013-06-27 22:01:00,
2013-06-27 17:02:00,86.2,51.1,28.91,NW,315,12.7,12.7,30,0.00,CLR,,0.00,WeatherDisplay:10.37,2013-06-27 22:02:00,
2013-06-27 17:03:00,86.0,51.0,28.91,NW,315,9.2,9.2,30,0.00,CLR,,0.00,WeatherDisplay:10.37,2013-06-27 22:03:00,
2013-06-27 17:07:00,85.8,51.7,28.91,WNW,292,9.2,9.2,31,0.00,CLR,,0.00,WeatherDisplay:10.37,2013-06-27 22:07:00,
2013-06-27 17:09:00,86.2,51.1,28.91,WNW,292,9.2,9.2,30,0.00,CLR,,0.00,WeatherDisplay:10.37,2013-06-27 22:09:00,
2013-06-27 17:11:00,86.2,52.0,28.91,NW,315,9.8,9.8,31,0.00,CLR,,0.00,WeatherDisplay:10.37,2013-06-27 22:11:00,
2013-06-27 17:12:00,86.4,52.2,28.91,WNW,292,9.2,9.2,31,0.00,CLR,,0.00,WeatherDisplay:10.37,2013-06-27 22:12:00,
2013-06-27 17:13:00,86.4,51.3,28.91,West,270,10.5,10.5,30,0.00,CLR,,0.00,WeatherDisplay:10.37,2013-06-27 22:13:00,
2013-06-27 17:16:00,86.4,51.3,28.91,West,270,8.1,8.1,30,0.00,CLR,,0.00,WeatherDisplay:10.37,2013-06-27 22:16:00,
2013-06-27 17:18:00,86.4,51.3,28.91,West,270,12.7,12.7,30,0.00,CLR,,0.00,WeatherDisplay:10.37,2013-06-27 22:18:00,
2013-06-27 17:19:00,86.4,51.3,28.91,West,270,8.7,8.7,30,0.00,CLR,,0.00,WeatherDisplay:10.37,2013-06-27 22:19:00,
2013-06-27 17:21:00,86.7,51.6,28.91,West,270,10.4,10.4,30,0.00,CLR,,0.00,WeatherDisplay:10.37,2013-06-27 22:21:00,
2013-06-27 17:24:00,86.9,51.7,28.91,WNW,292,11.5,11.5,30,0.00,CLR,,0.00,WeatherDisplay:10.37,2013-06-27 22:24:00,
2013-06-27 17:26:00,86.9,51.7,28.91,WNW,292,9.2,9.2,30,0.00,CLR,,0.00,WeatherDisplay:10.37,2013-06-27 22:26:00,
2013-06-27 17:27:00,86.9,51.7,28.91,WNW,292,13.8,13.8,30,0.00,CLR,,0.00,WeatherDisplay:10.37,2013-06-27 22:27:00,
2013-06-27 17:28:00,86.9,51.7,28.91,West,270,10.5,10.5,30,0.00,CLR,,0.00,WeatherDisplay:10.37,2013-06-27 22:28:00,
2013-06-27 17:31:00,86.7,50.7,28.91,WNW,292,10.4,10.4,29,0.00,CLR,,0.00,WeatherDisplay:10.37,2013-06-27 22:31:00,
2013-06-27 17:32:00,86.5,51.4,28.88,West,270,9.2,9.2,30,0.00,CLR,,0.00,WeatherDisplay:10.37,2013-06-27 22:32:00,
2013-06-27 17:33:00,86.4,50.3,28.88,WSW,248,12.7,12.7,29,0.00,CLR,,0.00,WeatherDisplay:10.37,2013-06-27 22:33:00,
2013-06-27 17:36:00,86.4,51.3,28.88,West,270,13.0,13.0,30,0.00,CLR,,0.00,WeatherDisplay:10.37,2013-06-27 22:36:00,
2013-06-27 17:38:00,86.0,50.0,28.88,West,270,12.7,12.7,29,0.00,CLR,,0.00,WeatherDisplay:10.37,2013-06-27 22:38:00,
2013-06-27 17:39:00,86.0,50.0,28.88,West,270,13.7,13.7,29,0.00,CLR,,0.00,WeatherDisplay:10.37,2013-06-27 22:39:00,
2013-06-27 17:41:00,85.8,49.9,28.88,WNW,292,10.4,10.4,29,0.00,CLR,,0.00,WeatherDisplay:10.37,2013-06-27 22:41:00,
2013-06-27 17:43:00,85.8,49.9,28.88,WNW,292,9.2,9.2,29,0.00,CLR,,0.00,WeatherDisplay:10.37,2013-06-27 22:43:00,
2013-06-27 17:44:00,85.8,50.8,28.88,WNW,292,9.2,9.2,30,0.00,CLR,,0.00,WeatherDisplay:10.37,2013-06-27 22:44:00,
2013-06-27 17:45:00,85.8,50.8,28.88,WNW,285,7.0,0.0,30,0.00,CLR,,0.00,WeatherDisplay:10.37,2013-06-27 22:45:00,
2013-06-27 17:47:00,85.8,50.8,28.94,WNW,292,11.5,11.5,30,0.00,CLR,,0.00,WeatherDisplay:10.37,2013-06-27 22:47:00,
2013-06-27 17:48:00,85.6,49.7,28.94,West,270,12.5,12.5,29,0.00,CLR,,0.00,WeatherDisplay:10.37,2013-06-27 22:48:00,
2013-06-27 17:50:00,85.6,49.7,28.94,West,280,9.0,0.0,29,0.00,CLR,,0.00,WeatherDisplay:10.37,2013-06-27 22:50:00,
2013-06-27 17:53:00,85.5,49.6,28.94,WNW,292,9.4,9.4,29,0.00,CLR,,0.00,WeatherDisplay:10.37,2013-06-27 22:53:00,
2013-06-27 17:55:00,85.3,49.4,28.94,WNW,286,10.0,0.0,29,0.00,CLR,,0.00,WeatherDisplay:10.37,2013-06-27 22:55:00,
2013-06-27 17:56:00,85.1,48.3,28.94,WNW,292,17.3,17.3,28,0.00,CLR,,0.00,WeatherDisplay:10.37,2013-06-27 22:56:00,
2013-06-27 18:00:00,85.0,48.2,28.94,WNW,294,10.0,0.0,28,0.00,CLR,,0.00,WeatherDisplay:10.37,2013-06-27 23:00:00,
2013-06-27 18:01:00,85.1,49.3,28.94,WNW,292,10.4,10.4,29,0.00,CLR,,0.00,WeatherDisplay:10.37,2013-06-27 23:01:00,
2013-06-27 18:02:00,85.1,49.3,28.91,WNW,292,10.9,10.9,29,0.00,CLR,,0.00,WeatherDisplay:10.37,2013-06-27 23:02:00,
2013-06-27 18:05:00,84.9,49.1,28.91,WNW,292,12.7,12.7,29,0.00,CLR,,0.00,WeatherDisplay:10.37,2013-06-27 23:05:00,
2013-06-27 18:06:00,84.9,49.1,28.91,NW,315,11.5,11.5,29,0.00,CLR,,0.00,WeatherDisplay:10.37,2013-06-27 23:06:00,
2013-06-27 18:07:00,84.9,49.1,28.91,West,270,14.7,14.7,29,0.00,CLR,,0.00,WeatherDisplay:10.37,2013-06-27 23:07:00,
2013-06-27 18:08:00,84.9,49.1,28.91,West,270,15.0,15.0,29,0.00,CLR,,0.00,WeatherDisplay:10.37,2013-06-27 23:08:00,
2013-06-27 18:13:00,84.7,49.0,28.91,WNW,292,8.1,8.1,29,0.00,CLR,,0.00,WeatherDisplay:10.37,2013-06-27 23:13:00,
2013-06-27 18:14:00,84.9,49.1,28.91,NW,315,8.5,8.5,29,0.00,CLR,,0.00,WeatherDisplay:10.37,2013-06-27 23:14:00,
2013-06-27 18:15:00,84.9,49.1,28.91,WNW,285,6.0,0.0,29,0.00,CLR,,0.00,WeatherDisplay:10.37,2013-06-27 23:15:00,
2013-06-27 18:19:00,84.7,49.0,28.91,West,270,11.5,11.5,29,0.00,CLR,,0.00,WeatherDisplay:10.37,2013-06-27 23:19:00,
2013-06-27 18:20:00,84.7,49.0,28.91,WNW,291,9.0,0.0,29,0.00,CLR,,0.00,WeatherDisplay:10.37,2013-06-27 23:20:00,
2013-06-27 18:22:00,84.6,48.8,28.91,WSW,248,9.2,9.2,29,0.00,CLR,,0.00,WeatherDisplay:10.37,2013-06-27 23:22:00,
2013-06-27 18:24:00,84.6,48.8,28.91,West,270,8.1,8.1,29,0.00,CLR,,0.00,WeatherDisplay:10.37,2013-06-27 23:24:00,
2013-06-27 18:26:00,84.7,49.0,28.91,West,270,12.7,12.7,29,0.00,CLR,,0.00,WeatherDisplay:10.37,2013-06-27 23:26:00,
2013-06-27 18:28:00,84.6,48.8,28.91,West,270,11.5,11.5,29,0.00,CLR,,0.00,WeatherDisplay:10.37,2013-06-27 23:28:00,
2013-06-27 18:30:00,84.6,48.8,28.91,WNW,292,11.5,11.5,29,0.00,CLR,,0.00,WeatherDisplay:10.37,2013-06-27 23:30:00,
2013-06-27 18:31:00,84.6,48.8,28.91,WNW,292,11.5,11.5,29,0.00,CLR,,0.00,WeatherDisplay:10.37,2013-06-27 23:31:00,
2013-06-27 18:35:00,84.4,48.6,28.91,West,270,10.4,10.4,29,0.00,CLR,,0.00,WeatherDisplay:10.37,2013-06-27 23:35:00,
2013-06-27 18:36:00,84.4,48.6,28.91,NNW,338,10.4,10.4,29,0.00,CLR,,0.00,WeatherDisplay:10.37,2013-06-27 23:36:00,
2013-06-27 18:38:00,84.4,48.6,28.91,WNW,292,8.1,8.1,29,0.00,CLR,,0.00,WeatherDisplay:10.37,2013-06-27 23:38:00,
2013-06-27 18:40:00,84.4,48.6,28.91,West,270,14.7,14.7,29,0.00,CLR,,0.00,WeatherDisplay:10.37,2013-06-27 23:40:00,
2013-06-27 18:41:00,84.2,48.5,28.91,West,270,15.0,15.0,29,0.00,CLR,,0.00,WeatherDisplay:10.37,2013-06-27 23:41:00,
2013-06-27 18:44:00,84.2,48.5,28.91,WSW,248,10.4,10.4,29,0.00,CLR,,0.00,WeatherDisplay:10.37,2013-06-27 23:44:00,
2013-06-27 18:45:00,84.0,48.3,28.91,NW,315,9.2,9.2,29,0.00,CLR,,0.00,WeatherDisplay:10.37,2013-06-27 23:45:00,
2013-06-27 18:46:00,84.2,48.5,28.88,West,270,8.1,8.1,29,0.00,CLR,,0.00,WeatherDisplay:10.37,2013-06-27 23:46:00,
2013-06-27 18:49:00,84.0,49.2,28.88,NW,315,8.1,8.1,30,0.00,CLR,,0.00,WeatherDisplay:10.37,2013-06-27 23:49:00,
2013-06-27 18:52:00,83.8,48.2,28.88,NW,315,12.7,12.7,29,0.00,CLR,,0.00,WeatherDisplay:10.37,2013-06-27 23:52:00,
2013-06-27 18:53:00,83.8,49.1,28.88,NW,315,12.7,12.7,30,0.00,CLR,,0.00,WeatherDisplay:10.37,2013-06-27 23:53:00,
2013-06-27 18:54:00,83.8,48.2,28.88,West,270,10.4,10.4,29,0.00,CLR,,0.00,WeatherDisplay:10.37,2013-06-27 23:54:00,
2013-06-27 18:55:00,83.8,48.2,28.88,WSW,248,10.4,10.4,29,0.00,CLR,,0.00,WeatherDisplay:10.37,2013-06-27 23:55:00,
2013-06-27 18:57:00,83.8,49.1,28.88,WNW,292,10.4,10.4,30,0.00,CLR,,0.00,WeatherDisplay:10.37,2013-06-27 23:57:00,
2013-06-27 18:58:00,83.7,48.9,28.88,WNW,292,12.3,12.3,30,0.00,CLR,,0.00,WeatherDisplay:10.37,2013-06-27 23:58:00,
2013-06-27 19:01:00,83.7,48.9,28.88,West,270,5.9,5.9,30,0.00,CLR,,0.00,WeatherDisplay:10.37,2013-06-28 00:01:00,
2013-06-27 19:02:00,83.7,48.9,28.88,West,270,6.2,6.9,30,0.00,CLR,,0.00,WeatherDisplay:10.37,2013-06-28 00:02:00,
2013-06-27 19:03:00,83.7,48.9,28.88,West,270,10.4,10.4,30,0.00,CLR,,0.00,WeatherDisplay:10.37,2013-06-28 00:03:00,
2013-06-27 19:04:00,83.5,48.8,28.88,WNW,292,8.1,8.1,30,0.00,CLR,,0.00,WeatherDisplay:10.37,2013-06-28 00:04:00,
2013-06-27 19:06:00,83.5,48.8,28.88,WNW,292,8.5,8.5,30,0.00,CLR,,0.00,WeatherDisplay:10.37,2013-06-28 00:06:00,
2013-06-27 19:08:00,83.5,48.8,28.88,WNW,292,8.1,8.1,30,0.00,CLR,,0.00,WeatherDisplay:10.37,2013-06-28 00:08:00,
2013-06-27 19:09:00,83.5,48.8,28.88,West,270,5.8,5.8,30,0.00,CLR,,0.00,WeatherDisplay:10.37,2013-06-28 00:09:00,
2013-06-27 19:10:00,83.5,48.8,28.88,West,270,10.0,10.0,30,0.00,CLR,,0.00,WeatherDisplay:10.37,2013-06-28 00:10:00,
2013-06-27 19:13:00,83.3,48.6,28.88,WNW,292,8.1,8.1,30,0.00,CLR,,0.00,WeatherDisplay:10.37,2013-06-28 00:13:00,
2013-06-27 19:14:00,83.3,48.6,28.88,NW,315,10.4,10.4,30,0.00,CLR,,0.00,WeatherDisplay:10.37,2013-06-28 00:14:00,
2013-06-27 19:17:00,83.1,48.5,28.88,West,270,8.1,8.1,30,0.00,CLR,,0.00,WeatherDisplay:10.37,2013-06-28 00:17:00,
2013-06-27 19:19:00,83.1,48.5,28.88,WNW,292,8.1,8.1,30,0.00,CLR,,0.00,WeatherDisplay:10.37,2013-06-28 00:19:00,
2013-06-27 19:20:00,83.1,49.3,28.88,WNW,289,7.0,0.0,31,0.00,CLR,,0.00,WeatherDisplay:10.37,2013-06-28 00:20:00,
2013-06-27 19:21:00,83.1,49.3,28.88,WNW,292,3.5,4.0,31,0.00,CLR,,0.00,WeatherDisplay:10.37,2013-06-28 00:21:00,
2013-06-27 19:22:00,83.1,49.3,28.88,West,270,5.8,5.8,31,0.00,CLR,,0.00,WeatherDisplay:10.37,2013-06-28 00:22:00,
2013-06-27 19:26:00,82.9,49.2,28.88,WNW,292,10.2,10.2,31,0.00,CLR,,0.00,WeatherDisplay:10.37,2013-06-28 00:26:00,
2013-06-27 19:27:00,82.9,49.2,28.88,West,270,10.4,10.4,31,0.00,CLR,,0.00,WeatherDisplay:10.37,2013-06-28 00:27:00,
2013-06-27 19:28:00,82.8,49.0,28.88,WNW,292,8.1,8.1,31,0.00,CLR,,0.00,WeatherDisplay:10.37,2013-06-28 00:28:00,
2013-06-27 19:32:00,82.6,48.9,28.85,West,270,9.2,9.2,31,0.00,CLR,,0.00,WeatherDisplay:10.37,2013-06-28 00:32:00,
2013-06-27 19:33:00,82.6,48.9,28.85,WNW,292,13.0,13.0,31,0.00,CLR,,0.00,WeatherDisplay:10.37,2013-06-28 00:33:00,
2013-06-27 19:34:00,82.6,48.9,28.85,NW,315,12.7,12.7,31,0.00,CLR,,0.00,WeatherDisplay:10.37,2013-06-28 00:34:00,
2013-06-27 19:35:00,82.4,49.6,28.85,WNW,292,11.5,11.5,32,0.00,CLR,,0.00,WeatherDisplay:10.37,2013-06-28 00:35:00,
2013-06-27 19:37:00,82.4,49.6,28.85,WNW,292,8.5,8.5,32,0.00,CLR,,0.00,WeatherDisplay:10.37,2013-06-28 00:37:00,
2013-06-27 19:39:00,82.2,49.4,28.85,NW,315,8.1,8.1,32,0.00,CLR,,0.00,WeatherDisplay:10.37,2013-06-28 00:39:00,
2013-06-27 19:40:00,82.2,49.4,28.85,WNW,288,6.0,0.0,32,0.00,CLR,,0.00,WeatherDisplay:10.37,2013-06-28 00:40:00,
2013-06-27 19:44:00,82.0,50.1,28.85,West,270,8.1,8.1,33,0.00,CLR,,0.00,WeatherDisplay:10.37,2013-06-28 00:44:00,
2013-06-27 19:45:00,82.0,50.1,28.85,WNW,286,6.0,0.0,33,0.00,CLR,,0.00,WeatherDisplay:10.37,2013-06-28 00:45:00,
2013-06-27 19:47:00,81.9,49.9,28.88,NW,315,6.9,6.9,33,0.00,CLR,,0.00,WeatherDisplay:10.37,2013-06-28 00:47:00,
2013-06-27 19:49:00,81.7,49.8,28.88,West,270,6.9,6.9,33,0.00,CLR,,0.00,WeatherDisplay:10.37,2013-06-28 00:49:00,
2013-06-27 19:50:00,81.7,49.8,28.88,WNW,286,5.0,0.0,33,0.00,CLR,,0.00,WeatherDisplay:10.37,2013-06-28 00:50:00,
2013-06-27 19:52:00,81.5,49.6,28.88,West,270,9.2,9.2,33,0.00,CLR,,0.00,WeatherDisplay:10.37,2013-06-28 00:52:00,
2013-06-27 19:54:00,81.3,49.5,28.88,West,270,5.9,5.9,33,0.00,CLR,,0.00,WeatherDisplay:10.37,2013-06-28 00:54:00,
2013-06-27 19:55:00,81.3,50.3,28.88,WNW,292,9.2,9.2,34,0.00,CLR,,0.00,WeatherDisplay:10.37,2013-06-28 00:55:00,
2013-06-27 19:56:00,81.3,49.5,28.88,West,270,9.2,9.2,33,0.00,CLR,,0.00,WeatherDisplay:10.37,2013-06-28 00:56:00,
2013-06-27 19:58:00,81.1,49.3,28.88,SW,225,9.2,9.2,33,0.00,CLR,,0.00,WeatherDisplay:10.37,2013-06-28 00:58:00,
2013-06-27 20:01:00,81.0,49.9,28.88,West,270,6.0,6.0,34,0.00,CLR,,0.00,WeatherDisplay:10.37,2013-06-28 01:01:00,
2013-06-27 20:02:00,81.0,49.9,28.88,WNW,292,9.2,9.2,34,0.00,CLR,,0.00,WeatherDisplay:10.37,2013-06-28 01:02:00,
2013-06-27 20:03:00,80.8,49.8,28.88,NNW,338,6.9,6.9,34,0.00,CLR,,0.00,WeatherDisplay:10.37,2013-06-28 01:03:00,
2013-06-27 20:05:00,80.6,49.6,28.88,WNW,292,5.8,6.4,34,0.00,CLR,,0.00,WeatherDisplay:10.37,2013-06-28 01:05:00,
2013-06-27 20:06:00,80.6,49.6,28.88,West,270,9.2,9.2,34,0.00,CLR,,0.00,WeatherDisplay:10.37,2013-06-28 01:06:00,
2013-06-27 20:07:00,80.6,49.6,28.88,WNW,292,5.8,5.8,34,0.00,CLR,,0.00,WeatherDisplay:10.37,2013-06-28 01:07:00,
2013-06-27 20:08:00,80.4,50.3,28.88,West,270,5.8,5.8,35,0.00,CLR,,0.00,WeatherDisplay:10.37,2013-06-28 01:08:00,
2013-06-27 20:10:00,80.2,50.1,28.88,WNW,292,6.4,6.4,35,0.00,CLR,,0.00,WeatherDisplay:10.37,2013-06-28 01:10:00,
2013-06-27 20:11:00,80.2,50.1,28.88,West,270,6.9,6.9,35,0.00,CLR,,0.00,WeatherDisplay:10.37,2013-06-28 01:11:00,
2013-06-27 20:14:00,80.1,50.7,28.88,WNW,292,8.5,8.5,36,0.00,CLR,,0.00,WeatherDisplay:10.37,2013-06-28 01:14:00,
2013-06-27 20:16:00,79.9,50.5,28.88,WNW,292,8.1,8.1,36,0.00,CLR,,0.00,WeatherDisplay:10.37,2013-06-28 01:16:00,
2013-06-27 20:17:00,79.9,50.5,28.88,West,270,4.6,4.6,36,0.00,CLR,,0.00,WeatherDisplay:10.37,2013-06-28 01:17:00,
2013-06-27 20:19:00,79.7,50.4,28.88,West,270,5.8,5.8,36,0.00,CLR,,0.00,WeatherDisplay:10.37,2013-06-28 01:19:00,
2013-06-27 20:22:00,79.5,50.2,28.88,West,270,5.4,5.4,36,0.00,CLR,,0.00,WeatherDisplay:10.37,2013-06-28 01:22:00,
2013-06-27 20:24:00,79.3,50.8,28.88,WNW,292,5.8,5.8,37,0.00,CLR,,0.00,WeatherDisplay:10.37,2013-06-28 01:24:00,
2013-06-27 20:27:00,79.2,50.6,28.88,NW,315,4.6,4.6,37,0.00,CLR,,0.00,WeatherDisplay:10.37,2013-06-28 01:27:00,
2013-06-27 20:28:00,79.0,50.5,28.88,WNW,292,5.8,5.8,37,0.00,CLR,,0.00,WeatherDisplay:10.37,2013-06-28 01:28:00,
2013-06-27 20:29:00,79.0,50.5,28.88,WNW,292,5.8,5.8,37,0.00,CLR,,0.00,WeatherDisplay:10.37,2013-06-28 01:29:00,
2013-06-27 20:33:00,78.6,51.6,28.88,WNW,292,5.8,5.8,39,0.00,CLR,,0.00,WeatherDisplay:10.37,2013-06-28 01:33:00,
2013-06-27 20:35:00,78.6,52.3,28.88,West,270,5.8,5.8,40,0.00,CLR,,0.00,WeatherDisplay:10.37,2013-06-28 01:35:00,
2013-06-27 20:36:00,78.4,52.1,28.88,WNW,292,4.0,4.0,40,0.00,CLR,,0.00,WeatherDisplay:10.37,2013-06-28 01:36:00,
2013-06-27 20:39:00,78.3,52.0,28.88,WNW,292,3.5,3.5,40,0.00,CLR,,0.00,WeatherDisplay:10.37,2013-06-28 01:39:00,
2013-06-27 20:40:00,78.3,52.0,28.88,WNW,292,3.5,3.5,40,0.00,CLR,,0.00,WeatherDisplay:10.37,2013-06-28 01:40:00,
2013-06-27 20:42:00,78.1,51.8,28.88,West,270,5.4,5.4,40,0.00,CLR,,0.00,WeatherDisplay:10.37,2013-06-28 01:42:00,
2013-06-27 20:44:00,77.9,51.6,28.88,NW,315,4.9,4.9,40,0.00,CLR,,0.00,WeatherDisplay:10.37,2013-06-28 01:44:00,
2013-06-27 20:45:00,77.9,51.6,28.88,WNW,292,5.4,5.4,40,0.00,CLR,,0.00,WeatherDisplay:10.37,2013-06-28 01:45:00,
2013-06-27 20:48:00,77.7,52.1,28.88,WNW,292,5.8,5.8,41,0.00,CLR,,0.00,WeatherDisplay:10.37,2013-06-28 01:48:00,
2013-06-27 20:49:00,77.7,52.1,28.88,West,270,4.6,4.6,41,0.00,CLR,,0.00,WeatherDisplay:10.37,2013-06-28 01:49:00,
2013-06-27 20:53:00,77.4,51.8,28.88,WNW,292,5.8,5.8,41,0.00,CLR,,0.00,WeatherDisplay:10.37,2013-06-28 01:53:00,
2013-06-27 20:54:00,77.4,51.8,28.88,WNW,292,5.8,5.8,41,0.00,CLR,,0.00,WeatherDisplay:10.37,2013-06-28 01:54:00,
2013-06-27 20:55:00,77.4,51.8,28.88,WNW,293,3.0,0.0,41,0.00,CLR,,0.00,WeatherDisplay:10.37,2013-06-28 01:55:00,
2013-06-27 20:56:00,77.4,51.8,28.88,WNW,292,5.9,5.9,41,0.00,CLR,,0.00,WeatherDisplay:10.37,2013-06-28 01:56:00,
2013-06-27 20:59:00,77.2,52.3,28.88,WNW,292,4.6,4.6,42,0.00,CLR,,0.00,WeatherDisplay:10.37,2013-06-28 01:59:00,
2013-06-27 21:01:00,77.0,52.1,28.88,NW,315,4.6,4.6,42,0.00,CLR,,0.00,WeatherDisplay:10.37,2013-06-28 02:01:00,
2013-06-27 21:02:00,77.0,52.1,28.88,West,270,4.6,4.6,42,0.00,CLR,,0.00,WeatherDisplay:10.37,2013-06-28 02:02:00,
2013-06-27 21:07:00,76.8,52.6,28.88,West,270,5.8,5.8,43,0.00,CLR,,0.00,WeatherDisplay:10.37,2013-06-28 02:07:00,
2013-06-27 21:09:00,76.6,52.5,28.88,WNW,292,4.6,4.6,43,0.00,CLR,,0.00,WeatherDisplay:10.37,2013-06-28 02:09:00,
2013-06-27 21:13:00,76.5,52.9,28.88,West,270,5.8,5.8,44,0.00,CLR,,0.00,WeatherDisplay:10.37,2013-06-28 02:13:00,
2013-06-27 21:14:00,76.5,52.9,28.88,NW,315,6.9,6.9,44,0.00,CLR,,0.00,WeatherDisplay:10.37,2013-06-28 02:14:00,
2013-06-27 21:15:00,76.3,52.8,28.88,NW,315,6.9,6.9,44,0.00,CLR,,0.00,WeatherDisplay:10.37,2013-06-28 02:15:00,
2013-06-27 21:17:00,76.3,52.8,28.88,West,270,4.6,4.6,44,0.00,CLR,,0.00,WeatherDisplay:10.37,2013-06-28 02:17:00,
2013-06-27 21:19:00,76.1,53.2,28.88,West,270,5.8,5.8,45,0.00,CLR,,0.00,WeatherDisplay:10.37,2013-06-28 02:19:00,
2013-06-27 21:20:00,76.1,52.6,28.88,WNW,292,5.8,5.8,44,0.00,CLR,,0.00,WeatherDisplay:10.37,2013-06-28 02:20:00,
2013-06-27 21:24:00,75.9,53.0,28.88,WNW,292,3.5,3.5,45,0.00,CLR,,0.00,WeatherDisplay:10.37,2013-06-28 02:24:00,
2013-06-27 21:25:00,75.9,53.0,28.88,WNW,292,5.9,5.9,45,0.00,CLR,,0.00,WeatherDisplay:10.37,2013-06-28 02:25:00,
2013-06-27 21:27:00,75.9,53.0,28.88,WNW,292,5.8,5.8,45,0.00,CLR,,0.00,WeatherDisplay:10.37,2013-06-28 02:27:00,
2013-06-27 21:29:00,75.7,52.9,28.88,WNW,292,5.8,5.8,45,0.00,CLR,,0.00,WeatherDisplay:10.37,2013-06-28 02:29:00,
2013-06-27 21:31:00,75.7,52.9,28.88,WNW,292,4.6,4.6,45,0.00,CLR,,0.00,WeatherDisplay:10.37,2013-06-28 02:31:00,
2013-06-27 21:32:00,75.7,52.9,28.88,WNW,292,4.0,4.3,45,0.00,CLR,,0.00,WeatherDisplay:10.37,2013-06-28 02:32:00,
2013-06-27 21:36:00,75.6,53.3,28.88,West,270,5.8,5.8,46,0.00,CLR,,0.00,WeatherDisplay:10.37,2013-06-28 02:36:00,
2013-06-27 21:40:00,75.4,53.2,28.88,WNW,292,4.9,4.9,46,0.00,CLR,,0.00,WeatherDisplay:10.37,2013-06-28 02:40:00,
2013-06-27 21:41:00,75.4,53.7,28.88,West,270,4.6,4.6,47,0.00,CLR,,0.00,WeatherDisplay:10.37,2013-06-28 02:41:00,
2013-06-27 21:42:00,75.4,53.7,28.88,West,270,4.9,4.9,47,0.00,CLR,,0.00,WeatherDisplay:10.37,2013-06-28 02:42:00,
2013-06-27 21:43:00,75.4,53.7,28.88,WNW,292,4.6,4.6,47,0.00,CLR,,0.00,WeatherDisplay:10.37,2013-06-28 02:43:00,
2013-06-27 21:46:00,75.2,54.2,28.88,West,270,8.1,8.1,48,0.00,CLR,,0.00,WeatherDisplay:10.37,2013-06-28 02:46:00,
2013-06-27 21:47:00,75.2,54.2,28.88,West,270,5.8,5.8,48,0.00,CLR,,0.00,WeatherDisplay:10.37,2013-06-28 02:47:00,
2013-06-27 21:51:00,75.0,54.0,28.88,NW,315,3.5,3.5,48,0.00,CLR,,0.00,WeatherDisplay:10.37,2013-06-28 02:51:00,
2013-06-27 21:52:00,75.0,54.0,28.88,WNW,292,3.5,3.5,48,0.00,CLR,,0.00,WeatherDisplay:10.37,2013-06-28 02:52:00,
2013-06-27 21:53:00,75.0,54.0,28.88,WNW,292,4.6,4.6,48,0.00,CLR,,0.00,WeatherDisplay:10.37,2013-06-28 02:53:00,
2013-06-27 21:57:00,75.0,54.6,28.88,NW,315,4.6,4.6,49,0.00,CLR,,0.00,WeatherDisplay:10.37,2013-06-28 02:57:00,
2013-06-27 21:58:00,74.8,53.8,28.88,WNW,292,5.8,5.8,48,0.00,CLR,,0.00,WeatherDisplay:10.37,2013-06-28 02:58:00,
2013-06-27 22:00:00,74.8,53.8,28.88,WSW,248,5.6,5.6,48,0.00,CLR,,0.00,WeatherDisplay:10.37,2013-06-28 03:00:00,
2013-06-27 22:03:00,74.8,54.4,28.88,West,270,4.3,4.3,49,0.00,CLR,,0.00,WeatherDisplay:10.37,2013-06-28 03:03:00,
2013-06-27 22:04:00,74.7,54.2,28.88,West,270,4.6,4.6,49,0.00,CLR,,0.00,WeatherDisplay:10.37,2013-06-28 03:04:00,
2013-06-27 22:05:00,74.7,54.2,28.88,NNW,338,4.6,4.6,49,0.00,CLR,,0.00,WeatherDisplay:10.37,2013-06-28 03:05:00,
2013-06-27 22:10:00,74.5,54.6,28.88,WNW,292,5.8,5.8,50,0.00,CLR,,0.00,WeatherDisplay:10.37,2013-06-28 03:10:00,
2013-06-27 22:12:00,74.5,54.6,28.88,WNW,292,4.6,4.6,50,0.00,CLR,,0.00,WeatherDisplay:10.37,2013-06-28 03:12:00,
2013-06-27 22:13:00,74.3,54.5,28.88,WNW,292,4.6,4.6,50,0.00,CLR,,0.00,WeatherDisplay:10.37,2013-06-28 03:13:00,
2013-06-27 22:16:00,74.3,55.0,28.88,West,270,5.8,5.8,51,0.00,CLR,,0.00,WeatherDisplay:10.37,2013-06-28 03:16:00,
2013-06-27 22:17:00,74.3,54.5,28.91,West,270,5.8,5.8,50,0.00,CLR,,0.00,WeatherDisplay:10.37,2013-06-28 03:17:00,
2013-06-27 22:18:00,74.1,54.3,28.91,WNW,292,5.8,5.8,50,0.00,CLR,,0.00,WeatherDisplay:10.37,2013-06-28 03:18:00,
2013-06-27 22:22:00,73.9,54.7,28.91,NW,315,6.0,6.0,51,0.00,CLR,,0.00,WeatherDisplay:10.37,2013-06-28 03:22:00,
2013-06-27 22:24:00,73.9,54.7,28.91,WNW,292,5.8,5.8,51,0.00,CLR,,0.00,WeatherDisplay:10.37,2013-06-28 03:24:00,
2013-06-27 22:25:00,73.9,55.2,28.91,NW,315,5.8,5.8,52,0.00,CLR,,0.00,WeatherDisplay:10.37,2013-06-28 03:25:00,
2013-06-27 22:28:00,73.8,55.0,28.91,West,270,4.6,4.6,52,0.00,CLR,,0.00,WeatherDisplay:10.37,2013-06-28 03:28:00,
2013-06-27 22:31:00,73.6,54.9,28.88,NW,315,4.6,4.6,52,0.00,CLR,,0.00,WeatherDisplay:10.37,2013-06-28 03:31:00,
2013-06-27 22:33:00,73.6,54.9,28.88,West,270,3.5,3.5,52,0.00,CLR,,0.00,WeatherDisplay:10.37,2013-06-28 03:33:00,
2013-06-27 22:35:00,73.6,54.9,28.88,WNW,289,2.0,0.0,52,0.00,CLR,,0.00,WeatherDisplay:10.37,2013-06-28 03:35:00,
2013-06-27 22:37:00,73.4,55.2,28.88,West,270,3.5,3.5,53,0.00,CLR,,0.00,WeatherDisplay:10.37,2013-06-28 03:37:00,
2013-06-27 22:38:00,73.4,55.2,28.88,NW,315,4.3,4.3,53,0.00,CLR,,0.00,WeatherDisplay:10.37,2013-06-28 03:38:00,
2013-06-27 22:40:00,73.4,55.2,28.88,West,270,4.0,4.0,53,0.00,CLR,,0.00,WeatherDisplay:10.37,2013-06-28 03:40:00,
2013-06-27 22:42:00,73.4,55.2,28.88,West,270,3.5,3.5,53,0.00,CLR,,0.00,WeatherDisplay:10.37,2013-06-28 03:42:00,
2013-06-27 22:43:00,73.4,55.2,28.88,WNW,292,3.5,3.5,53,0.00,CLR,,0.00,WeatherDisplay:10.37,2013-06-28 03:43:00,
2013-06-27 22:45:00,73.4,55.2,28.88,WNW,292,2.3,2.9,53,0.00,CLR,,0.00,WeatherDisplay:10.37,2013-06-28 03:45:00,
2013-06-27 22:48:00,73.4,55.7,28.91,West,270,5.8,5.8,54,0.00,CLR,,0.00,WeatherDisplay:10.37,2013-06-28 03:48:00,
2013-06-27 22:49:00,73.4,55.7,28.91,West,270,5.4,5.6,54,0.00,CLR,,0.00,WeatherDisplay:10.37,2013-06-28 03:49:00,
2013-06-27 22:50:00,73.4,56.2,28.91,WNW,282,5.0,0.0,55,0.00,CLR,,0.00,WeatherDisplay:10.37,2013-06-28 03:50:00,
2013-06-27 22:54:00,73.4,55.7,28.91,WNW,292,4.6,4.6,54,0.00,CLR,,0.00,WeatherDisplay:10.37,2013-06-28 03:54:00,
2013-06-27 22:55:00,73.4,56.2,28.91,WNW,292,4.6,4.6,55,0.00,CLR,,0.00,WeatherDisplay:10.37,2013-06-28 03:55:00,
2013-06-27 22:57:00,73.2,56.1,28.91,West,270,6.0,6.0,55,0.00,CLR,,0.00,WeatherDisplay:10.37,2013-06-28 03:57:00,
2013-06-27 23:00:00,73.2,56.6,28.91,West,270,6.9,6.9,56,0.00,CLR,,0.00,WeatherDisplay:10.37,2013-06-28 04:00:00,
2013-06-27 23:01:00,73.2,56.1,28.91,WNW,292,4.6,4.6,55,0.00,CLR,,0.00,WeatherDisplay:10.37,2013-06-28 04:01:00,
2013-06-27 23:02:00,73.2,56.6,28.91,West,270,5.8,5.8,56,0.00,CLR,,0.00,WeatherDisplay:10.37,2013-06-28 04:02:00,
2013-06-27 23:03:00,73.2,56.6,28.91,WNW,292,5.8,5.8,56,0.00,CLR,,0.00,WeatherDisplay:10.37,2013-06-28 04:03:00,
2013-06-27 23:04:00,73.2,56.1,28.91,West,270,3.5,3.8,55,0.00,CLR,,0.00,WeatherDisplay:10.37,2013-06-28 04:04:00,
2013-06-27 23:06:00,73.2,56.1,28.91,WNW,292,4.6,4.6,55,0.00,CLR,,0.00,WeatherDisplay:10.37,2013-06-28 04:06:00,
2013-06-27 23:08:00,73.0,56.4,28.91,WNW,292,3.6,3.6,56,0.00,CLR,,0.00,WeatherDisplay:10.37,2013-06-28 04:08:00,
2013-06-27 23:09:00,73.0,56.4,28.91,West,270,4.6,4.6,56,0.00,CLR,,0.00,WeatherDisplay:10.37,2013-06-28 04:09:00,
2013-06-27 23:10:00,73.0,56.4,28.91,WNW,287,3.0,0.0,56,0.00,CLR,,0.00,WeatherDisplay:10.37,2013-06-28 04:10:00,
2013-06-27 23:13:00,72.9,56.2,28.91,NW,315,3.5,3.5,56,0.00,CLR,,0.00,WeatherDisplay:10.37,2013-06-28 04:13:00,
2013-06-27 23:14:00,72.9,56.2,28.91,WNW,292,4.6,4.6,56,0.00,CLR,,0.00,WeatherDisplay:10.37,2013-06-28 04:14:00,
2013-06-27 23:15:00,72.9,56.2,28.91,NW,315,4.6,4.6,56,0.00,CLR,,0.00,WeatherDisplay:10.37,2013-06-28 04:15:00,
2013-06-27 23:17:00,72.9,56.2,28.91,West,270,3.5,3.5,56,0.00,CLR,,0.00,WeatherDisplay:10.37,2013-06-28 04:17:00,
2013-06-27 23:20:00,72.9,56.2,28.91,West,270,3.5,3.5,56,0.00,CLR,,0.00,WeatherDisplay:10.37,2013-06-28 04:20:00,
2013-06-27 23:22:00,72.7,56.1,28.91,WSW,248,3.5,3.5,56,0.00,CLR,,0.00,WeatherDisplay:10.37,2013-06-28 04:22:00,
2013-06-27 23:25:00,72.7,56.1,28.91,West,278,2.0,0.0,56,0.00,CLR,,0.00,WeatherDisplay:10.37,2013-06-28 04:25:00,
2013-06-27 23:27:00,72.7,56.6,28.91,WNW,292,3.5,3.5,57,0.00,CLR,,0.00,WeatherDisplay:10.37,2013-06-28 04:27:00,
2013-06-27 23:28:00,72.5,55.9,28.91,WSW,248,2.3,3.3,56,0.00,CLR,,0.00,WeatherDisplay:10.37,2013-06-28 04:28:00,
2013-06-27 23:30:00,72.5,55.9,28.91,West,275,3.0,0.0,56,0.00,CLR,,0.00,WeatherDisplay:10.37,2013-06-28 04:30:00,
2013-06-27 23:32:00,72.5,56.9,28.91,SW,225,2.3,2.3,58,0.00,CLR,,0.00,WeatherDisplay:10.37,2013-06-28 04:32:00,
2013-06-27 23:35:00,72.3,56.7,28.91,West,265,1.0,0.0,58,0.00,CLR,,0.00,WeatherDisplay:10.37,2013-06-28 04:35:00,
2013-06-27 23:38:00,72.3,56.2,28.91,WSW,248,3.5,3.5,57,0.00,CLR,,0.00,WeatherDisplay:10.37,2013-06-28 04:38:00,
2013-06-27 23:39:00,72.1,56.5,28.91,WSW,248,3.5,3.5,58,0.00,CLR,,0.00,WeatherDisplay:10.37,2013-06-28 04:39:00,
2013-06-27 23:41:00,72.1,56.5,28.91,West,270,2.3,2.3,58,0.00,CLR,,0.00,WeatherDisplay:10.37,2013-06-28 04:41:00,
2013-06-27 23:43:00,72.0,56.4,28.91,WNW,292,2.3,2.3,58,0.00,CLR,,0.00,WeatherDisplay:10.37,2013-06-28 04:43:00,
2013-06-27 23:46:00,72.0,56.4,28.91,West,270,3.5,3.5,58,0.00,CLR,,0.00,WeatherDisplay:10.37,2013-06-28 04:46:00,
2013-06-27 23:48:00,71.8,56.7,28.91,West,270,3.5,3.5,59,0.00,CLR,,0.00,WeatherDisplay:10.37,2013-06-28 04:48:00,
2013-06-27 23:52:00,71.6,56.5,28.91,West,270,2.3,2.3,59,0.00,CLR,,0.00,WeatherDisplay:10.37,2013-06-28 04:52:00,
2013-06-27 23:53:00,71.6,56.5,28.91,WSW,248,1.4,1.4,59,0.00,CLR,,0.00,WeatherDisplay:10.37,2013-06-28 04:53:00,
2013-06-27 23:55:00,71.4,56.3,28.91,West,270,1.0,0.0,59,0.00,CLR,,0.00,WeatherDisplay:10.37,2013-06-28 04:55:00,
2013-06-27 23:57:00,71.4,56.8,28.91,West,270,3.8,0.0,60,0.00,CLR,,0.00,WeatherDisplay:10.37,2013-06-28 04:57:00,
2013-06-27 23:59:00,71.2,56.2,28.91,West,270,4.6,4.6,59,0.00,CLR,,0.00,WeatherDisplay:10.37,2013-06-28 04:59:00,